| time (UTC) | temp F | wind direction | speed MPH | gust MPH | rain 1hr in | rain 24hr in | rain mn in | humidity % | barometer mb |
| 20260510101625 | 59 | 22 | 14.0 | 0.0 | 0.00 | 0.00 | 0.00 | 65 | 1060.9 |
| 20260510101514 | 59 | 45 | 8.0 | 0.0 | 0.00 | 0.00 | 0.00 | 67 | 1060.8 |
| 20260510101407 | 59 | 45 | 16.0 | 0.0 | 0.00 | 0.00 | 0.00 | 67 | 1060.9 |
| 20260510101248 | 59 | 0 | 8.0 | 0.0 | 0.00 | 0.00 | 0.00 | 68 | 1060.8 |
| 20260510101141 | 58 | 22 | 7.0 | 0.0 | 0.00 | 0.00 | 0.00 | 69 | 1060.8 |
| 20260510101028 | 58 | 22 | 6.0 | 0.0 | 0.00 | 0.00 | 0.00 | 68 | 1060.7 |
| 20260510100923 | 58 | 22 | 11.0 | 0.0 | 0.00 | 0.00 | 0.00 | 68 | 1060.8 |
| 20260510100801 | 58 | 22 | 14.0 | 0.0 | 0.00 | 0.00 | 0.00 | 68 | 1060.8 |
| 20260510100650 | 59 | 0 | 9.0 | 0.0 | 0.00 | 0.00 | 0.00 | 68 | 1060.7 |
| 20260510100543 | 59 | 0 | 3.0 | 0.0 | 0.00 | 0.00 | 0.00 | 67 | 1060.8 |
| 20260510100430 | 59 | 337 | 6.0 | 0.0 | 0.00 | 0.00 | 0.00 | 68 | 1060.7 |
| 20260510100311 | 59 | 22 | 5.0 | 0.0 | 0.00 | 0.00 | 0.00 | 68 | 1060.7 |
| 20260510100156 | 59 | 0 | 12.0 | 0.0 | 0.00 | 0.00 | 0.00 | 67 | 1060.7 |
| 20260510100043 | 59 | 270 | 13.0 | 0.0 | 0.00 | 0.00 | 0.00 | 66 | 1060.7 |
| 20260510095938 | 59 | 0 | 8.0 | 0.0 | 0.00 | 0.00 | 0.00 | 67 | 1060.7 |
| 20260510095825 | 59 | 22 | 3.0 | 0.0 | 0.00 | 0.00 | 0.00 | 66 | 1060.7 |
| 20260510095713 | 59 | 22 | 6.0 | 0.0 | 0.00 | 0.00 | 0.00 | 66 | 1060.7 |
| 20260510095607 | 59 | 0 | 7.0 | 0.0 | 0.00 | 0.00 | 0.00 | 66 | 1060.6 |
| 20260510095454 | 60 | 45 | 7.0 | 0.0 | 0.00 | 0.00 | 0.00 | 66 | 1060.7 |
| 20260510095331 | 60 | 337 | 7.0 | 0.0 | 0.00 | 0.00 | 0.00 | 65 | 1060.7 |
| 20260510095213 | 60 | 0 | 5.0 | 0.0 | 0.00 | 0.00 | 0.00 | 66 | 1060.7 |
| 20260510095106 | 60 | 22 | 11.0 | 0.0 | 0.00 | 0.00 | 0.00 | 66 | 1060.7 |
| 20260510094944 | 60 | 45 | 10.0 | 0.0 | 0.00 | 0.00 | 0.00 | 66 | 1060.6 |
| 20260510094823 | 60 | 22 | 8.0 | 0.0 | 0.00 | 0.00 | 0.00 | 66 | 1060.6 |
| 20260510094702 | 60 | 337 | 7.0 | 0.0 | 0.00 | 0.00 | 0.00 | 66 | 1060.6 |
| 20260510094541 | 60 | 0 | 8.0 | 0.0 | 0.00 | 0.00 | 0.00 | 67 | 1060.5 |
| 20260510094428 | 60 | 0 | 6.0 | 0.0 | 0.00 | 0.00 | 0.00 | 68 | 1060.6 |
| 20260510094314 | 60 | 22 | 6.0 | 0.0 | 0.00 | 0.00 | 0.00 | 68 | 1060.6 |
| 20260510094155 | 59 | 0 | 10.0 | 0.0 | 0.00 | 0.00 | 0.00 | 68 | 1060.6 |
| 20260510094048 | 59 | 22 | 2.0 | 0.0 | 0.00 | 0.00 | 0.00 | 68 | 1060.7 |
| 20260510093927 | 59 | 337 | 6.0 | 0.0 | 0.00 | 0.00 | 0.00 | 66 | 1060.7 |
| 20260510093805 | 60 | 22 | 7.0 | 0.0 | 0.00 | 0.00 | 0.00 | 66 | 1060.7 |
| 20260510093639 | 60 | 0 | 6.0 | 0.0 | 0.00 | 0.00 | 0.00 | 66 | 1060.7 |
| 20260510093531 | 60 | 0 | 11.0 | 0.0 | 0.00 | 0.00 | 0.00 | 65 | 1060.7 |
| 20260510093411 | 60 | 22 | 18.0 | 0.0 | 0.00 | 0.00 | 0.00 | 65 | 1060.7 |
| 20260510093305 | 60 | 0 | 5.0 | 0.0 | 0.00 | 0.00 | 0.00 | 65 | 1060.7 |
| 20260510093200 | 60 | 0 | 7.0 | 0.0 | 0.00 | 0.00 | 0.00 | 65 | 1060.7 |
| 20260510093047 | 60 | 337 | 10.0 | 0.0 | 0.00 | 0.00 | 0.00 | 65 | 1060.7 |
| 20260510092932 | 60 | 0 | 11.0 | 0.0 | 0.00 | 0.00 | 0.00 | 65 | 1060.7 |
| 20260510092813 | 61 | 22 | 8.0 | 0.0 | 0.00 | 0.00 | 0.00 | 64 | 1060.7 |
| 20260510092659 | 61 | 0 | 9.0 | 0.0 | 0.00 | 0.00 | 0.00 | 64 | 1060.7 |
| 20260510092546 | 61 | 0 | 11.0 | 0.0 | 0.00 | 0.00 | 0.00 | 63 | 1060.7 |
| 20260510092433 | 61 | 315 | 8.0 | 0.0 | 0.00 | 0.00 | 0.00 | 64 | 1060.7 |
| 20260510092320 | 61 | 45 | 8.0 | 0.0 | 0.00 | 0.00 | 0.00 | 64 | 1060.8 |
| 20260510092214 | 61 | 22 | 14.0 | 0.0 | 0.00 | 0.00 | 0.00 | 65 | 1060.8 |
| 20260510092053 | 61 | 45 | 10.0 | 0.0 | 0.00 | 0.00 | 0.00 | 64 | 1060.7 |
| 20260510091932 | 61 | 45 | 7.0 | 0.0 | 0.00 | 0.00 | 0.00 | 63 | 1060.7 |
| 20260510091826 | 61 | 22 | 11.0 | 0.0 | 0.00 | 0.00 | 0.00 | 63 | 1060.8 |
| 20260510091708 | 62 | 0 | 11.0 | 0.0 | 0.00 | 0.00 | 0.00 | 63 | 1060.7 |
| 20260510091601 | 62 | 22 | 10.0 | 0.0 | 0.00 | 0.00 | 0.00 | 63 | 1060.8 |
| 20260510091449 | 62 | 0 | 9.0 | 0.0 | 0.00 | 0.00 | 0.00 | 63 | 1060.8 |
| 20260510091345 | 62 | 0 | 4.0 | 0.0 | 0.00 | 0.00 | 0.00 | 64 | 1060.8 |
| 20260510091237 | 62 | 337 | 12.0 | 0.0 | 0.00 | 0.00 | 0.00 | 63 | 1060.9 |
| 20260510091124 | 62 | 0 | 6.0 | 0.0 | 0.00 | 0.00 | 0.00 | 63 | 1060.9 |
| 20260510091019 | 62 | 0 | 12.0 | 0.0 | 0.00 | 0.00 | 0.00 | 63 | 1060.8 |
| 20260510090859 | 62 | 45 | 6.0 | 0.0 | 0.00 | 0.00 | 0.00 | 63 | 1060.8 |
| 20260510090745 | 62 | 0 | 7.0 | 0.0 | 0.00 | 0.00 | 0.00 | 64 | 1060.8 |
| 20260510090615 | 62 | 22 | 10.0 | 0.0 | 0.00 | 0.00 | 0.00 | 65 | 1060.8 |
| 20260510090454 | 62 | 0 | 10.0 | 0.0 | 0.00 | 0.00 | 0.00 | 64 | 1060.8 |
| 20260510090325 | 62 | 45 | 11.0 | 0.0 | 0.00 | 0.00 | 0.00 | 63 | 1060.8 |
| 20260510090213 | 62 | 67 | 12.0 | 0.0 | 0.00 | 0.00 | 0.00 | 62 | 1060.8 |
| 20260510090106 | 62 | 0 | 6.0 | 0.0 | 0.00 | 0.00 | 0.00 | 62 | 1060.8 |
| 20260510085945 | 62 | 22 | 12.0 | 0.0 | 0.00 | 0.00 | 0.00 | 63 | 1060.8 |
| 20260510085824 | 62 | 45 | 9.0 | 0.0 | 0.00 | 0.00 | 0.00 | 62 | 1060.9 |
| 20260510085710 | 62 | 22 | 9.0 | 0.0 | 0.00 | 0.00 | 0.00 | 62 | 1060.8 |
| 20260510085542 | 62 | 337 | 8.0 | 0.0 | 0.00 | 0.00 | 0.00 | 62 | 1060.9 |
| 20260510085422 | 62 | 45 | 11.0 | 0.0 | 0.00 | 0.00 | 0.00 | 61 | 1060.9 |
| 20260510085310 | 62 | 337 | 7.0 | 0.0 | 0.00 | 0.00 | 0.00 | 61 | 1060.7 |
| 20260510085202 | 62 | 0 | 6.0 | 0.0 | 0.00 | 0.00 | 0.00 | 61 | 1060.8 |
| 20260510085041 | 62 | 45 | 8.0 | 0.0 | 0.00 | 0.00 | 0.00 | 62 | 1060.8 |
| 20260510084920 | 62 | 22 | 9.0 | 0.0 | 0.00 | 0.00 | 0.00 | 63 | 1060.7 |
| 20260510084806 | 62 | 0 | 2.0 | 0.0 | 0.00 | 0.00 | 0.00 | 63 | 1060.8 |
| 20260510084645 | 62 | 337 | 7.0 | 0.0 | 0.00 | 0.00 | 0.00 | 63 | 1060.8 |
| 20260510084524 | 62 | 22 | 6.0 | 0.0 | 0.00 | 0.00 | 0.00 | 63 | 1060.9 |
| 20260510084419 | 61 | 0 | 5.0 | 0.0 | 0.00 | 0.00 | 0.00 | 63 | 1060.8 |
| 20260510084300 | 61 | 45 | 16.0 | 0.0 | 0.00 | 0.00 | 0.00 | 62 | 1060.8 |
| 20260510084148 | 61 | 22 | 4.0 | 0.0 | 0.00 | 0.00 | 0.00 | 62 | 1060.8 |
| 20260510084042 | 61 | 45 | 13.0 | 0.0 | 0.00 | 0.00 | 0.00 | 62 | 1060.8 |
| 20260510083935 | 61 | 22 | 8.0 | 0.0 | 0.00 | 0.00 | 0.00 | 62 | 1060.8 |
| 20260510083816 | 61 | 67 | 4.0 | 0.0 | 0.00 | 0.00 | 0.00 | 62 | 1060.7 |
| 20260510083708 | 61 | 45 | 9.0 | 0.0 | 0.00 | 0.00 | 0.00 | 62 | 1060.8 |
| 20260510083547 | 61 | 0 | 7.0 | 0.0 | 0.00 | 0.00 | 0.00 | 63 | 1060.8 |
| 20260510083420 | 61 | 315 | 8.0 | 0.0 | 0.00 | 0.00 | 0.00 | 63 | 1060.8 |
| 20260510083313 | 60 | 0 | 4.0 | 0.0 | 0.00 | 0.00 | 0.00 | 64 | 1060.8 |
| 20260510083143 | 60 | 45 | 9.0 | 0.0 | 0.00 | 0.00 | 0.00 | 64 | 1060.8 |
| 20260510083022 | 60 | 337 | 7.0 | 0.0 | 0.00 | 0.00 | 0.00 | 64 | 1060.8 |
| 20260510082909 | 60 | 45 | 6.0 | 0.0 | 0.00 | 0.00 | 0.00 | 63 | 1060.8 |
| 20260510082756 | 60 | 45 | 7.0 | 0.0 | 0.00 | 0.00 | 0.00 | 63 | 1060.9 |
| 20260510082643 | 60 | 0 | 11.0 | 0.0 | 0.00 | 0.00 | 0.00 | 64 | 1060.9 |
| 20260510082523 | 60 | 22 | 7.0 | 0.0 | 0.00 | 0.00 | 0.00 | 64 | 1060.9 |
| 20260510082408 | 60 | 22 | 9.0 | 0.0 | 0.00 | 0.00 | 0.00 | 65 | 1060.9 |
| 20260510082257 | 59 | 0 | 8.0 | 0.0 | 0.00 | 0.00 | 0.00 | 67 | 1060.9 |
| 20260510082150 | 59 | 45 | 5.0 | 0.0 | 0.00 | 0.00 | 0.00 | 67 | 1060.9 |
| 20260510082038 | 59 | 0 | 5.0 | 0.0 | 0.00 | 0.00 | 0.00 | 66 | 1060.9 |
| 20260510081924 | 59 | 0 | 9.0 | 0.0 | 0.00 | 0.00 | 0.00 | 66 | 1060.9 |
| 20260510081756 | 58 | 22 | 4.0 | 0.0 | 0.00 | 0.00 | 0.00 | 66 | 1060.9 |
| 20260510081652 | 59 | 90 | 6.0 | 0.0 | 0.00 | 0.00 | 0.00 | 66 | 1060.9 |
| 20260510081545 | 59 | 22 | 7.0 | 0.0 | 0.00 | 0.00 | 0.00 | 66 | 1060.8 |
| 20260510081431 | 59 | 22 | 9.0 | 0.0 | 0.00 | 0.00 | 0.00 | 66 | 1060.8 |
| 20260510081303 | 59 | 22 | 10.0 | 0.0 | 0.00 | 0.00 | 0.00 | 65 | 1060.9 |
| 20260510081158 | 59 | 45 | 5.0 | 0.0 | 0.00 | 0.00 | 0.00 | 65 | 1060.9 |
| 20260510081044 | 59 | 22 | 6.0 | 0.0 | 0.00 | 0.00 | 0.00 | 64 | 1060.8 |
| 20260510080932 | 60 | 0 | 6.0 | 0.0 | 0.00 | 0.00 | 0.00 | 63 | 1060.9 |
| 20260510080809 | 60 | 45 | 7.0 | 0.0 | 0.00 | 0.00 | 0.00 | 63 | 1061.0 |
| 20260510080657 | 61 | 0 | 8.0 | 0.0 | 0.00 | 0.00 | 0.00 | 63 | 1061.0 |
| 20260510080552 | 61 | 22 | 6.0 | 0.0 | 0.00 | 0.00 | 0.00 | 64 | 1060.9 |
| 20260510080433 | 60 | 0 | 6.0 | 0.0 | 0.00 | 0.00 | 0.00 | 64 | 1061.0 |
| 20260510080320 | 60 | 337 | 11.0 | 0.0 | 0.00 | 0.00 | 0.00 | 64 | 1060.8 |
| 20260510080214 | 60 | 67 | 9.0 | 0.0 | 0.00 | 0.00 | 0.00 | 64 | 1060.8 |
| 20260510080108 | 60 | 0 | 4.0 | 0.0 | 0.00 | 0.00 | 0.00 | 64 | 1060.8 |
| 20260510075955 | 60 | 0 | 8.0 | 0.0 | 0.00 | 0.00 | 0.00 | 64 | 1060.8 |
| 20260510075835 | 60 | 45 | 6.0 | 0.0 | 0.00 | 0.00 | 0.00 | 65 | 1060.7 |
| 20260510075728 | 60 | 22 | 6.0 | 0.0 | 0.00 | 0.00 | 0.00 | 67 | 1060.8 |
| 20260510075607 | 59 | 337 | 11.0 | 0.0 | 0.00 | 0.00 | 0.00 | 68 | 1060.8 |
| 20260510075438 | 59 | 22 | 9.0 | 0.0 | 0.00 | 0.00 | 0.00 | 69 | 1060.8 |
| 20260510075325 | 59 | 45 | 7.0 | 0.0 | 0.00 | 0.00 | 0.00 | 71 | 1060.8 |
| 20260510075213 | 58 | 0 | 5.0 | 0.0 | 0.00 | 0.00 | 0.00 | 71 | 1060.8 |
| 20260510075107 | 58 | 0 | 4.0 | 0.0 | 0.00 | 0.00 | 0.00 | 71 | 1060.8 |
| 20260510074954 | 57 | 22 | 10.0 | 0.0 | 0.00 | 0.00 | 0.00 | 71 | 1060.8 |
| 20260510074839 | 57 | 22 | 0.0 | 0.0 | 0.00 | 0.00 | 0.00 | 72 | 1060.8 |
| 20260510074726 | 57 | 0 | 7.0 | 0.0 | 0.00 | 0.00 | 0.00 | 72 | 1060.7 |
| 20260510074613 | 56 | 337 | 4.0 | 0.0 | 0.00 | 0.00 | 0.00 | 72 | 1060.8 |
| 20260510074501 | 56 | 22 | 11.0 | 0.0 | 0.00 | 0.00 | 0.00 | 73 | 1060.7 |
| 20260510074357 | 56 | 22 | 7.0 | 0.0 | 0.00 | 0.00 | 0.00 | 73 | 1060.7 |
| 20260510074242 | 56 | 337 | 2.0 | 0.0 | 0.00 | 0.00 | 0.00 | 73 | 1060.7 |
| 20260510074127 | 56 | 22 | 11.0 | 0.0 | 0.00 | 0.00 | 0.00 | 73 | 1060.7 |
| 20260510074002 | 55 | 45 | 0.0 | 0.0 | 0.00 | 0.00 | 0.00 | 72 | 1060.8 |
| 20260510073854 | 55 | 45 | 9.0 | 0.0 | 0.00 | 0.00 | 0.00 | 72 | 1060.8 |
| 20260510073741 | 55 | 0 | 7.0 | 0.0 | 0.00 | 0.00 | 0.00 | 72 | 1060.8 |
| 20260510073627 | 55 | 22 | 8.0 | 0.0 | 0.00 | 0.00 | 0.00 | 72 | 1060.7 |
| 20260510073517 | 55 | 0 | 4.0 | 0.0 | 0.00 | 0.00 | 0.00 | 72 | 1060.8 |
| 20260510073411 | 55 | 22 | 5.0 | 0.0 | 0.00 | 0.00 | 0.00 | 72 | 1060.7 |
| 20260510073308 | 55 | 22 | 7.0 | 0.0 | 0.00 | 0.00 | 0.00 | 72 | 1060.7 |
| 20260510073200 | 55 | 0 | 6.0 | 0.0 | 0.00 | 0.00 | 0.00 | 72 | 1060.7 |
| 20260510073039 | 55 | 22 | 3.0 | 0.0 | 0.00 | 0.00 | 0.00 | 72 | 1060.7 |
| 20260510072925 | 55 | 22 | 7.0 | 0.0 | 0.00 | 0.00 | 0.00 | 72 | 1060.8 |
| 20260510072811 | 55 | 45 | 10.0 | 0.0 | 0.00 | 0.00 | 0.00 | 72 | 1060.7 |
| 20260510072651 | 55 | 45 | 6.0 | 0.0 | 0.00 | 0.00 | 0.00 | 72 | 1060.8 |
| 20260510072545 | 55 | 45 | 3.0 | 0.0 | 0.00 | 0.00 | 0.00 | 72 | 1060.8 |
| 20260510072430 | 54 | 0 | 6.0 | 0.0 | 0.00 | 0.00 | 0.00 | 71 | 1060.8 |
| 20260510072310 | 54 | 22 | 9.0 | 0.0 | 0.00 | 0.00 | 0.00 | 71 | 1060.8 |
| 20260510072157 | 54 | 22 | 7.0 | 0.0 | 0.00 | 0.00 | 0.00 | 71 | 1060.9 |
| 20260510072043 | 54 | 45 | 10.0 | 0.0 | 0.00 | 0.00 | 0.00 | 71 | 1060.9 |
| 20260510071932 | 54 | 22 | 11.0 | 0.0 | 0.00 | 0.00 | 0.00 | 72 | 1060.8 |
| 20260510071826 | 54 | 22 | 7.0 | 0.0 | 0.00 | 0.00 | 0.00 | 72 | 1060.7 |
| 20260510071712 | 54 | 0 | 13.0 | 0.0 | 0.00 | 0.00 | 0.00 | 72 | 1060.8 |
| 20260510071558 | 54 | 67 | 10.0 | 0.0 | 0.00 | 0.00 | 0.00 | 72 | 1060.6 |
| 20260510071446 | 54 | 45 | 8.0 | 0.0 | 0.00 | 0.00 | 0.00 | 72 | 1060.7 |
| 20260510071332 | 54 | 0 | 8.0 | 0.0 | 0.00 | 0.00 | 0.00 | 72 | 1060.7 |
| 20260510071211 | 54 | 45 | 11.0 | 0.0 | 0.00 | 0.00 | 0.00 | 73 | 1060.7 |
| 20260510071051 | 54 | 45 | 11.0 | 0.0 | 0.00 | 0.00 | 0.00 | 74 | 1060.8 |
| 20260510070940 | 54 | 22 | 7.0 | 0.0 | 0.00 | 0.00 | 0.00 | 74 | 1060.7 |
| 20260510070832 | 54 | 22 | 6.0 | 0.0 | 0.00 | 0.00 | 0.00 | 74 | 1060.7 |
| 20260510070719 | 54 | 337 | 5.0 | 0.0 | 0.00 | 0.00 | 0.00 | 74 | 1060.7 |
| 20260510070614 | 54 | 22 | 10.0 | 0.0 | 0.00 | 0.00 | 0.00 | 74 | 1060.7 |
| 20260510070500 | 54 | 22 | 4.0 | 0.0 | 0.00 | 0.00 | 0.00 | 74 | 1060.8 |
| 20260510070342 | 54 | 22 | 8.0 | 0.0 | 0.00 | 0.00 | 0.00 | 74 | 1060.7 |
| 20260510070236 | 54 | 0 | 7.0 | 0.0 | 0.00 | 0.00 | 0.00 | 74 | 1060.8 |
| 20260510070132 | 54 | 337 | 6.0 | 0.0 | 0.00 | 0.00 | 0.00 | 74 | 1060.8 |
| 20260510070028 | 53 | 22 | 8.0 | 0.0 | 0.00 | 0.00 | 0.00 | 74 | 1060.7 |
| 20260510065920 | 53 | 22 | 7.0 | 0.0 | 0.00 | 0.00 | 0.00 | 73 | 1060.7 |
| 20260510065807 | 53 | 45 | 7.0 | 0.0 | 0.00 | 0.00 | 0.00 | 73 | 1060.8 |
| 20260510065653 | 53 | 0 | 3.0 | 0.0 | 0.00 | 0.00 | 0.00 | 73 | 1060.8 |
| 20260510065542 | 53 | 22 | 0.0 | 0.0 | 0.00 | 0.00 | 0.00 | 72 | 1060.7 |
| 20260510065435 | 53 | 22 | 0.0 | 0.0 | 0.00 | 0.00 | 0.00 | 72 | 1060.7 |
| 20260510065323 | 53 | 0 | 2.0 | 0.0 | 0.00 | 0.00 | 0.00 | 72 | 1060.7 |
| 20260510065210 | 53 | 0 | 5.0 | 0.0 | 0.00 | 0.00 | 0.00 | 71 | 1060.7 |
| 20260510065059 | 53 | 0 | 4.0 | 0.0 | 0.00 | 0.00 | 0.00 | 71 | 1060.6 |
| 20260510064954 | 53 | 22 | 12.0 | 0.0 | 0.00 | 0.00 | 0.00 | 71 | 1060.7 |
| 20260510064839 | 53 | 0 | 3.0 | 0.0 | 0.00 | 0.00 | 0.00 | 71 | 1060.6 |
| 20260510064716 | 53 | 0 | 4.0 | 0.0 | 0.00 | 0.00 | 0.00 | 71 | 1060.6 |
| 20260510064549 | 53 | 22 | 0.0 | 0.0 | 0.00 | 0.00 | 0.00 | 72 | 1060.6 |
| 20260510064444 | 53 | 45 | 0.0 | 0.0 | 0.00 | 0.00 | 0.00 | 72 | 1060.6 |
| 20260510064331 | 53 | 45 | 6.0 | 0.0 | 0.00 | 0.00 | 0.00 | 72 | 1060.6 |
| 20260510064219 | 53 | 67 | 6.0 | 0.0 | 0.00 | 0.00 | 0.00 | 72 | 1060.6 |
| 20260510064114 | 53 | 22 | 5.0 | 0.0 | 0.00 | 0.00 | 0.00 | 72 | 1060.6 |
| 20260510064007 | 53 | 45 | 5.0 | 0.0 | 0.00 | 0.00 | 0.00 | 73 | 1060.6 |
| 20260510063854 | 53 | 22 | 8.0 | 0.0 | 0.00 | 0.00 | 0.00 | 73 | 1060.5 |
| 20260510063731 | 53 | 22 | 6.0 | 0.0 | 0.00 | 0.00 | 0.00 | 73 | 1060.5 |
| 20260510063612 | 53 | 67 | 4.0 | 0.0 | 0.00 | 0.00 | 0.00 | 73 | 1060.5 |
| 20260510063459 | 53 | 22 | 10.0 | 0.0 | 0.00 | 0.00 | 0.00 | 72 | 1060.5 |
| 20260510063345 | 53 | 0 | 5.0 | 0.0 | 0.00 | 0.00 | 0.00 | 72 | 1060.5 |
| 20260510063232 | 53 | 0 | 4.0 | 0.0 | 0.00 | 0.00 | 0.00 | 72 | 1060.6 |
| 20260510063113 | 53 | 45 | 9.0 | 0.0 | 0.00 | 0.00 | 0.00 | 72 | 1060.6 |
| 20260510063008 | 53 | 45 | 0.0 | 0.0 | 0.00 | 0.00 | 0.00 | 73 | 1060.5 |
| 20260510062902 | 53 | 45 | 7.0 | 0.0 | 0.00 | 0.00 | 0.00 | 72 | 1060.5 |
| 20260510062759 | 53 | 22 | 4.0 | 0.0 | 0.00 | 0.00 | 0.00 | 72 | 1060.5 |
| 20260510062651 | 53 | 337 | 5.0 | 0.0 | 0.00 | 0.00 | 0.00 | 73 | 1060.6 |
| 20260510062537 | 53 | 0 | 0.0 | 0.0 | 0.00 | 0.00 | 0.00 | 73 | 1060.5 |
| 20260510062416 | 53 | 45 | 4.0 | 0.0 | 0.00 | 0.00 | 0.00 | 73 | 1060.6 |
| 20260510062256 | 53 | 22 | 6.0 | 0.0 | 0.00 | 0.00 | 0.00 | 73 | 1060.5 |
| 20260510062150 | 53 | 22 | 4.0 | 0.0 | 0.00 | 0.00 | 0.00 | 73 | 1060.6 |
| 20260510062028 | 53 | 45 | 9.0 | 0.0 | 0.00 | 0.00 | 0.00 | 73 | 1060.5 |
| 20260510061916 | 53 | 22 | 11.0 | 0.0 | 0.00 | 0.00 | 0.00 | 74 | 1060.5 |
| 20260510061803 | 53 | 0 | 6.0 | 0.0 | 0.00 | 0.00 | 0.00 | 75 | 1060.6 |
| 20260510061658 | 53 | 22 | 9.0 | 0.0 | 0.00 | 0.00 | 0.00 | 76 | 1060.5 |
| 20260510061544 | 53 | 0 | 3.0 | 0.0 | 0.00 | 0.00 | 0.00 | 76 | 1060.6 |
| 20260510061424 | 53 | 0 | 9.0 | 0.0 | 0.00 | 0.00 | 0.00 | 76 | 1060.5 |
| 20260510061311 | 53 | 0 | 5.0 | 0.0 | 0.00 | 0.00 | 0.00 | 76 | 1060.5 |
| 20260510061206 | 53 | 0 | 6.0 | 0.0 | 0.00 | 0.00 | 0.00 | 76 | 1060.5 |
| 20260510061100 | 53 | 0 | 5.0 | 0.0 | 0.00 | 0.00 | 0.00 | 76 | 1060.5 |
| 20260510060948 | 53 | 22 | 7.0 | 0.0 | 0.00 | 0.00 | 0.00 | 77 | 1060.5 |
| 20260510060841 | 53 | 22 | 3.0 | 0.0 | 0.00 | 0.00 | 0.00 | 77 | 1060.5 |
| 20260510060721 | 53 | 0 | 2.0 | 0.0 | 0.00 | 0.00 | 0.00 | 77 | 1060.6 |
| 20260510060607 | 53 | 0 | 6.0 | 0.0 | 0.00 | 0.00 | 0.00 | 77 | 1060.6 |
| 20260510060441 | 53 | 0 | 7.0 | 0.0 | 0.00 | 0.00 | 0.00 | 77 | 1060.6 |
| 20260510060332 | 53 | 22 | 4.0 | 0.0 | 0.00 | 0.00 | 0.00 | 77 | 1060.6 |
| 20260510060220 | 53 | 22 | 3.0 | 0.0 | 0.00 | 0.00 | 0.00 | 77 | 1060.6 |
| 20260510060116 | 53 | 0 | 4.0 | 0.0 | 0.00 | 0.00 | 0.00 | 77 | 1060.6 |
| 20260510060013 | 53 | 0 | 5.0 | 0.0 | 0.00 | 0.00 | 0.00 | 77 | 1060.6 |
| 20260510055906 | 53 | 22 | 4.0 | 0.0 | 0.00 | 0.00 | 0.00 | 77 | 1060.6 |
| 20260510055801 | 53 | 337 | 7.0 | 0.0 | 0.00 | 0.00 | 0.00 | 77 | 1060.6 |
| 20260510055655 | 53 | 22 | 8.0 | 0.0 | 0.00 | 0.00 | 0.00 | 77 | 1060.5 |
| 20260510055542 | 53 | 337 | 2.0 | 0.0 | 0.00 | 0.00 | 0.00 | 77 | 1060.5 |
| 20260510055431 | 53 | 22 | 6.0 | 0.0 | 0.00 | 0.00 | 0.00 | 77 | 1060.4 |
| 20260510055326 | 53 | 0 | 7.0 | 0.0 | 0.00 | 0.00 | 0.00 | 77 | 1060.4 |
| 20260510055219 | 53 | 0 | 6.0 | 0.0 | 0.00 | 0.00 | 0.00 | 78 | 1060.4 |
| 20260510055106 | 53 | 0 | 5.0 | 0.0 | 0.00 | 0.00 | 0.00 | 78 | 1060.5 |
| 20260510054953 | 53 | 22 | 5.0 | 0.0 | 0.00 | 0.00 | 0.00 | 78 | 1060.4 |
| 20260510054848 | 53 | 45 | 6.0 | 0.0 | 0.00 | 0.00 | 0.00 | 78 | 1060.4 |
| 20260510054742 | 53 | 337 | 5.0 | 0.0 | 0.00 | 0.00 | 0.00 | 78 | 1060.4 |
| 20260510054620 | 53 | 45 | 7.0 | 0.0 | 0.00 | 0.00 | 0.00 | 78 | 1060.5 |
| 20260510054500 | 53 | 22 | 8.0 | 0.0 | 0.00 | 0.00 | 0.00 | 78 | 1060.5 |
| 20260510054347 | 53 | 22 | 4.0 | 0.0 | 0.00 | 0.00 | 0.00 | 78 | 1060.5 |
| 20260510054234 | 53 | 0 | 6.0 | 0.0 | 0.00 | 0.00 | 0.00 | 79 | 1060.5 |
| 20260510054120 | 53 | 22 | 3.0 | 0.0 | 0.00 | 0.00 | 0.00 | 79 | 1060.5 |
| 20260510054008 | 53 | 22 | 0.0 | 0.0 | 0.00 | 0.00 | 0.00 | 79 | 1060.5 |
| 20260510053846 | 53 | 22 | 8.0 | 0.0 | 0.00 | 0.00 | 0.00 | 79 | 1060.5 |
| 20260510053732 | 53 | 0 | 7.0 | 0.0 | 0.00 | 0.00 | 0.00 | 79 | 1060.5 |
| 20260510053612 | 53 | 22 | 0.0 | 0.0 | 0.00 | 0.00 | 0.00 | 79 | 1060.5 |
| 20260510053450 | 53 | 45 | 4.0 | 0.0 | 0.00 | 0.00 | 0.00 | 79 | 1060.5 |
| 20260510053337 | 53 | 45 | 0.0 | 0.0 | 0.00 | 0.00 | 0.00 | 79 | 1060.4 |
| 20260510053225 | 53 | 337 | 9.0 | 0.0 | 0.00 | 0.00 | 0.00 | 79 | 1060.4 |
| 20260510053103 | 53 | 22 | 8.0 | 0.0 | 0.00 | 0.00 | 0.00 | 79 | 1060.4 |
| 20260510052950 | 53 | 22 | 0.0 | 0.0 | 0.00 | 0.00 | 0.00 | 79 | 1060.5 |
| 20260510052845 | 53 | 22 | 4.0 | 0.0 | 0.00 | 0.00 | 0.00 | 79 | 1060.5 |
| 20260510052734 | 53 | 0 | 6.0 | 0.0 | 0.00 | 0.00 | 0.00 | 79 | 1060.5 |
| 20260510052619 | 53 | 22 | 5.0 | 0.0 | 0.00 | 0.00 | 0.00 | 79 | 1060.6 |
| 20260510052508 | 53 | 0 | 6.0 | 0.0 | 0.00 | 0.00 | 0.00 | 79 | 1060.6 |
| 20260510052401 | 53 | 22 | 6.0 | 0.0 | 0.00 | 0.00 | 0.00 | 79 | 1060.5 |
| 20260510052248 | 53 | 45 | 8.0 | 0.0 | 0.00 | 0.00 | 0.00 | 79 | 1060.6 |
| 20260510052141 | 53 | 45 | 9.0 | 0.0 | 0.00 | 0.00 | 0.00 | 79 | 1060.6 |
| 20260510052028 | 53 | 337 | 5.0 | 0.0 | 0.00 | 0.00 | 0.00 | 79 | 1060.5 |
| 20260510051918 | 53 | 0 | 6.0 | 0.0 | 0.00 | 0.00 | 0.00 | 79 | 1060.5 |
| 20260510051811 | 53 | 22 | 9.0 | 0.0 | 0.00 | 0.00 | 0.00 | 80 | 1060.5 |
| 20260510051649 | 53 | 337 | 7.0 | 0.0 | 0.00 | 0.00 | 0.00 | 80 | 1060.5 |
| 20260510051536 | 53 | 0 | 4.0 | 0.0 | 0.00 | 0.00 | 0.00 | 80 | 1060.5 |
| 20260510051424 | 53 | 45 | 7.0 | 0.0 | 0.00 | 0.00 | 0.00 | 80 | 1060.6 |
| 20260510051312 | 53 | 337 | 8.0 | 0.0 | 0.00 | 0.00 | 0.00 | 80 | 1060.5 |
| 20260510051205 | 53 | 22 | 4.0 | 0.0 | 0.00 | 0.00 | 0.00 | 80 | 1060.5 |
| 20260510051053 | 53 | 22 | 8.0 | 0.0 | 0.00 | 0.00 | 0.00 | 80 | 1060.5 |
| 20260510050947 | 53 | 22 | 3.0 | 0.0 | 0.00 | 0.00 | 0.00 | 80 | 1060.5 |
| 20260510050835 | 53 | 22 | 5.0 | 0.0 | 0.00 | 0.00 | 0.00 | 80 | 1060.5 |
| 20260510050731 | 53 | 0 | 4.0 | 0.0 | 0.00 | 0.00 | 0.00 | 80 | 1060.5 |
| 20260510050624 | 52 | 45 | 4.0 | 0.0 | 0.00 | 0.00 | 0.00 | 80 | 1060.5 |
| 20260510050512 | 53 | 22 | 4.0 | 0.0 | 0.00 | 0.00 | 0.00 | 80 | 1060.5 |
| 20260510050358 | 52 | 22 | 6.0 | 0.0 | 0.00 | 0.00 | 0.00 | 81 | 1060.5 |
| 20260510050244 | 53 | 22 | 9.0 | 0.0 | 0.00 | 0.00 | 0.00 | 81 | 1060.5 |
| 20260510050123 | 52 | 45 | 8.0 | 0.0 | 0.00 | 0.00 | 0.00 | 81 | 1060.5 |
| 20260510050010 | 52 | 0 | 5.0 | 0.0 | 0.00 | 0.00 | 0.00 | 81 | 1060.4 |
| 20260510045856 | 53 | 22 | 7.0 | 0.0 | 0.00 | 0.00 | 0.00 | 81 | 1060.5 |
| 20260510045727 | 52 | 22 | 6.0 | 0.0 | 0.00 | 0.00 | 0.00 | 82 | 1060.5 |
| 20260510045614 | 52 | 22 | 5.0 | 0.0 | 0.00 | 0.00 | 0.00 | 82 | 1060.5 |
| 20260510045507 | 52 | 0 | 7.0 | 0.0 | 0.00 | 0.00 | 0.00 | 82 | 1060.5 |
| 20260510045353 | 52 | 22 | 5.0 | 0.0 | 0.00 | 0.00 | 0.00 | 82 | 1060.6 |
| 20260510045232 | 52 | 22 | 4.0 | 0.0 | 0.00 | 0.00 | 0.00 | 82 | 1060.6 |
| 20260510045125 | 52 | 0 | 5.0 | 0.0 | 0.00 | 0.00 | 0.00 | 83 | 1060.6 |
| 20260510045011 | 52 | 22 | 6.0 | 0.0 | 0.00 | 0.00 | 0.00 | 83 | 1060.6 |
| 20260510044904 | 52 | 67 | 9.0 | 0.0 | 0.00 | 0.00 | 0.00 | 83 | 1060.5 |
| 20260510044742 | 52 | 0 | 8.0 | 0.0 | 0.00 | 0.00 | 0.00 | 83 | 1060.6 |
| 20260510044629 | 52 | 22 | 0.0 | 0.0 | 0.00 | 0.00 | 0.00 | 83 | 1060.6 |
| 20260510044522 | 52 | 22 | 6.0 | 0.0 | 0.00 | 0.00 | 0.00 | 83 | 1060.6 |
| 20260510044408 | 52 | 0 | 4.0 | 0.0 | 0.00 | 0.00 | 0.00 | 83 | 1060.5 |
| 20260510044255 | 52 | 0 | 2.0 | 0.0 | 0.00 | 0.00 | 0.00 | 83 | 1060.5 |
| 20260510044131 | 52 | 337 | 5.0 | 0.0 | 0.00 | 0.00 | 0.00 | 83 | 1060.5 |
| 20260510044016 | 52 | 0 | 4.0 | 0.0 | 0.00 | 0.00 | 0.00 | 83 | 1060.5 |
| 20260510043846 | 52 | 0 | 0.0 | 0.0 | 0.00 | 0.00 | 0.00 | 83 | 1060.5 |
| 20260510043732 | 52 | 22 | 8.0 | 0.0 | 0.00 | 0.00 | 0.00 | 83 | 1060.4 |
| 20260510043625 | 52 | 0 | 8.0 | 0.0 | 0.00 | 0.00 | 0.00 | 83 | 1060.5 |
| 20260510043511 | 52 | 22 | 3.0 | 0.0 | 0.00 | 0.00 | 0.00 | 83 | 1060.5 |
| 20260510043349 | 52 | 22 | 2.0 | 0.0 | 0.00 | 0.00 | 0.00 | 82 | 1060.5 |
| 20260510043235 | 52 | 45 | 6.0 | 0.0 | 0.00 | 0.00 | 0.00 | 82 | 1060.5 |
| 20260510043128 | 52 | 0 | 0.0 | 0.0 | 0.00 | 0.00 | 0.00 | 82 | 1060.5 |
| 20260510043022 | 52 | 0 | 4.0 | 0.0 | 0.00 | 0.00 | 0.00 | 82 | 1060.5 |
| 20260510042859 | 52 | 67 | 12.0 | 0.0 | 0.00 | 0.00 | 0.00 | 82 | 1060.4 |
| 20260510042739 | 52 | 0 | 5.0 | 0.0 | 0.00 | 0.00 | 0.00 | 82 | 1060.4 |
| 20260510042632 | 52 | 67 | 0.0 | 0.0 | 0.00 | 0.00 | 0.00 | 82 | 1060.5 |
| 20260510042526 | 52 | 0 | 5.0 | 0.0 | 0.00 | 0.00 | 0.00 | 82 | 1060.4 |
| 20260510042419 | 52 | 22 | 4.0 | 0.0 | 0.00 | 0.00 | 0.00 | 82 | 1060.5 |
| 20260510042259 | 52 | 45 | 7.0 | 0.0 | 0.00 | 0.00 | 0.00 | 83 | 1060.5 |
| 20260510042143 | 52 | 0 | 5.0 | 0.0 | 0.00 | 0.00 | 0.00 | 83 | 1060.5 |
| 20260510042029 | 52 | 0 | 6.0 | 0.0 | 0.00 | 0.00 | 0.00 | 83 | 1060.5 |
| 20260510041922 | 52 | 22 | 6.0 | 0.0 | 0.00 | 0.00 | 0.00 | 83 | 1060.5 |
| 20260510041800 | 52 | 22 | 6.0 | 0.0 | 0.00 | 0.00 | 0.00 | 83 | 1060.5 |
| 20260510041638 | 52 | 22 | 6.0 | 0.0 | 0.00 | 0.00 | 0.00 | 83 | 1060.6 |
| 20260510041532 | 52 | 45 | 4.0 | 0.0 | 0.00 | 0.00 | 0.00 | 83 | 1060.5 |
| 20260510041426 | 52 | 0 | 8.0 | 0.0 | 0.00 | 0.00 | 0.00 | 83 | 1060.6 |
| 20260510041320 | 52 | 0 | 7.0 | 0.0 | 0.00 | 0.00 | 0.00 | 83 | 1060.5 |
| 20260510041214 | 52 | 45 | 5.0 | 0.0 | 0.00 | 0.00 | 0.00 | 83 | 1060.6 |
| 20260510041111 | 52 | 22 | 6.0 | 0.0 | 0.00 | 0.00 | 0.00 | 83 | 1060.5 |
| 20260510041006 | 52 | 22 | 6.0 | 0.0 | 0.00 | 0.00 | 0.00 | 83 | 1060.5 |
| 20260510040855 | 52 | 22 | 2.0 | 0.0 | 0.00 | 0.00 | 0.00 | 83 | 1060.5 |
| 20260510040734 | 52 | 45 | 6.0 | 0.0 | 0.00 | 0.00 | 0.00 | 83 | 1060.5 |
| 20260510040629 | 52 | 45 | 6.0 | 0.0 | 0.00 | 0.00 | 0.00 | 83 | 1060.5 |
| 20260510040521 | 52 | 22 | 6.0 | 0.0 | 0.00 | 0.00 | 0.00 | 83 | 1060.5 |
| 20260510040410 | 52 | 22 | 9.0 | 0.0 | 0.00 | 0.00 | 0.00 | 83 | 1060.4 |
| 20260510040301 | 52 | 45 | 2.0 | 0.0 | 0.00 | 0.00 | 0.00 | 83 | 1060.4 |
| 20260510040147 | 52 | 22 | 4.0 | 0.0 | 0.00 | 0.00 | 0.00 | 83 | 1060.4 |
| 20260510040041 | 52 | 22 | 6.0 | 0.0 | 0.00 | 0.00 | 0.00 | 83 | 1060.4 |
| 20260510035935 | 52 | 22 | 6.0 | 0.0 | 0.00 | 0.00 | 0.00 | 83 | 1060.5 |
| 20260510035828 | 52 | 67 | 6.0 | 0.0 | 0.00 | 0.00 | 0.00 | 83 | 1060.4 |
| 20260510035708 | 52 | 45 | 6.0 | 0.0 | 0.00 | 0.00 | 0.00 | 83 | 1060.4 |
| 20260510035600 | 52 | 22 | 1.0 | 0.0 | 0.00 | 0.00 | 0.00 | 83 | 1060.4 |
| 20260510035438 | 52 | 45 | 5.0 | 0.0 | 0.00 | 0.00 | 0.00 | 84 | 1060.4 |
| 20260510035332 | 52 | 22 | 0.0 | 0.0 | 0.00 | 0.00 | 0.00 | 84 | 1060.4 |
| 20260510035225 | 52 | 45 | 5.0 | 0.0 | 0.00 | 0.00 | 0.00 | 84 | 1060.4 |
| 20260510035120 | 52 | 22 | 5.0 | 0.0 | 0.00 | 0.00 | 0.00 | 83 | 1060.3 |
| 20260510035014 | 52 | 337 | 6.0 | 0.0 | 0.00 | 0.00 | 0.00 | 84 | 1060.5 |
| 20260510034907 | 52 | 337 | 5.0 | 0.0 | 0.00 | 0.00 | 0.00 | 83 | 1060.5 |
| 20260510034753 | 52 | 0 | 3.0 | 0.0 | 0.00 | 0.00 | 0.00 | 84 | 1060.4 |
| 20260510034633 | 52 | 0 | 6.0 | 0.0 | 0.00 | 0.00 | 0.00 | 84 | 1060.5 |
| 20260510034526 | 52 | 45 | 7.0 | 0.0 | 0.00 | 0.00 | 0.00 | 83 | 1060.5 |
| 20260510034419 | 52 | 22 | 3.0 | 0.0 | 0.00 | 0.00 | 0.00 | 83 | 1060.6 |
| 20260510034305 | 52 | 22 | 6.0 | 0.0 | 0.00 | 0.00 | 0.00 | 84 | 1060.6 |
| 20260510034158 | 52 | 22 | 6.0 | 0.0 | 0.00 | 0.00 | 0.00 | 83 | 1060.5 |
| 20260510034036 | 52 | 22 | 10.0 | 0.0 | 0.00 | 0.00 | 0.00 | 83 | 1060.6 |
| 20260510033914 | 52 | 0 | 15.0 | 0.0 | 0.00 | 0.00 | 0.00 | 83 | 1060.5 |
| 20260510033808 | 52 | 45 | 6.0 | 0.0 | 0.00 | 0.00 | 0.00 | 83 | 1060.6 |
| 20260510033653 | 52 | 337 | 2.0 | 0.0 | 0.00 | 0.00 | 0.00 | 83 | 1060.6 |
| 20260510033532 | 52 | 0 | 12.0 | 0.0 | 0.00 | 0.00 | 0.00 | 83 | 1060.6 |
| 20260510033425 | 52 | 45 | 10.0 | 0.0 | 0.00 | 0.00 | 0.00 | 83 | 1060.6 |
| 20260510033310 | 52 | 45 | 5.0 | 0.0 | 0.00 | 0.00 | 0.00 | 83 | 1060.7 |
| 20260510033158 | 52 | 22 | 6.0 | 0.0 | 0.00 | 0.00 | 0.00 | 83 | 1060.7 |
| 20260510033043 | 52 | 45 | 2.0 | 0.0 | 0.00 | 0.00 | 0.00 | 83 | 1060.7 |
| 20260510032936 | 52 | 22 | 2.0 | 0.0 | 0.00 | 0.00 | 0.00 | 83 | 1060.7 |
| 20260510032822 | 52 | 0 | 11.0 | 0.0 | 0.00 | 0.00 | 0.00 | 83 | 1060.7 |
| 20260510032708 | 52 | 22 | 0.0 | 0.0 | 0.00 | 0.00 | 0.00 | 83 | 1060.7 |
| 20260510032602 | 52 | 45 | 4.0 | 0.0 | 0.00 | 0.00 | 0.00 | 83 | 1060.7 |
| 20260510032456 | 52 | 0 | 4.0 | 0.0 | 0.00 | 0.00 | 0.00 | 83 | 1060.7 |
| 20260510032341 | 52 | 0 | 8.0 | 0.0 | 0.00 | 0.00 | 0.00 | 83 | 1060.7 |
| 20260510032219 | 52 | 22 | 3.0 | 0.0 | 0.00 | 0.00 | 0.00 | 83 | 1060.7 |
| 20260510032105 | 52 | 67 | 6.0 | 0.0 | 0.00 | 0.00 | 0.00 | 83 | 1060.7 |
| 20260510031959 | 52 | 22 | 6.0 | 0.0 | 0.00 | 0.00 | 0.00 | 83 | 1060.7 |
| 20260510031853 | 52 | 0 | 6.0 | 0.0 | 0.00 | 0.00 | 0.00 | 83 | 1060.8 |
| 20260510031747 | 52 | 45 | 6.0 | 0.0 | 0.00 | 0.00 | 0.00 | 83 | 1060.8 |
| 20260510031640 | 52 | 22 | 8.0 | 0.0 | 0.00 | 0.00 | 0.00 | 83 | 1060.8 |
| 20260510031529 | 52 | 0 | 7.0 | 0.0 | 0.00 | 0.00 | 0.00 | 83 | 1060.7 |
| 20260510031422 | 52 | 337 | 5.0 | 0.0 | 0.00 | 0.00 | 0.00 | 83 | 1060.7 |
| 20260510031308 | 52 | 0 | 6.0 | 0.0 | 0.00 | 0.00 | 0.00 | 83 | 1060.7 |
| 20260510031201 | 52 | 22 | 7.0 | 0.0 | 0.00 | 0.00 | 0.00 | 83 | 1060.7 |
| 20260510031054 | 52 | 22 | 9.0 | 0.0 | 0.00 | 0.00 | 0.00 | 83 | 1060.8 |
| 20260510030940 | 52 | 22 | 5.0 | 0.0 | 0.00 | 0.00 | 0.00 | 84 | 1060.8 |
| 20260510030826 | 52 | 0 | 4.0 | 0.0 | 0.00 | 0.00 | 0.00 | 84 | 1060.8 |
| 20260510030720 | 52 | 0 | 6.0 | 0.0 | 0.00 | 0.00 | 0.00 | 84 | 1060.8 |
| 20260510030605 | 52 | 22 | 4.0 | 0.0 | 0.00 | 0.00 | 0.00 | 84 | 1060.7 |
| 20260510030443 | 52 | 22 | 6.0 | 0.0 | 0.00 | 0.00 | 0.00 | 84 | 1060.8 |
| 20260510030329 | 52 | 0 | 6.0 | 0.0 | 0.00 | 0.00 | 0.00 | 84 | 1060.8 |
| 20260510030223 | 52 | 22 | 3.0 | 0.0 | 0.00 | 0.00 | 0.00 | 84 | 1060.8 |
| 20260510030117 | 52 | 67 | 5.0 | 0.0 | 0.00 | 0.00 | 0.00 | 84 | 1060.9 |
| 20260510030011 | 52 | 22 | 4.0 | 0.0 | 0.00 | 0.00 | 0.00 | 84 | 1060.8 |
| 20260510025905 | 52 | 45 | 9.0 | 0.0 | 0.00 | 0.00 | 0.00 | 84 | 1060.9 |
| 20260510025759 | 52 | 337 | 6.0 | 0.0 | 0.00 | 0.00 | 0.00 | 84 | 1060.9 |
| 20260510025646 | 52 | 22 | 6.0 | 0.0 | 0.00 | 0.00 | 0.00 | 84 | 1060.9 |
| 20260510025530 | 52 | 22 | 4.0 | 0.0 | 0.00 | 0.00 | 0.00 | 84 | 1060.9 |
| 20260510025418 | 52 | 22 | 0.0 | 0.0 | 0.00 | 0.00 | 0.00 | 84 | 1060.9 |
| 20260510025311 | 52 | 45 | 3.0 | 0.0 | 0.00 | 0.00 | 0.00 | 84 | 1060.9 |
| 20260510025204 | 52 | 22 | 5.0 | 0.0 | 0.00 | 0.00 | 0.00 | 85 | 1060.9 |
| 20260510025051 | 52 | 22 | 6.0 | 0.0 | 0.00 | 0.00 | 0.00 | 85 | 1061.0 |
| 20260510024946 | 52 | 0 | 2.0 | 0.0 | 0.00 | 0.00 | 0.00 | 85 | 1061.0 |
| 20260510024824 | 52 | 22 | 0.0 | 0.0 | 0.00 | 0.00 | 0.00 | 85 | 1061.0 |
| 20260510024703 | 52 | 45 | 3.0 | 0.0 | 0.00 | 0.00 | 0.00 | 85 | 1060.9 |
| 20260510024534 | 52 | 22 | 0.0 | 0.0 | 0.00 | 0.00 | 0.00 | 85 | 1061.0 |
| 20260510024420 | 52 | 22 | 8.0 | 0.0 | 0.00 | 0.00 | 0.00 | 85 | 1061.0 |
| 20260510024300 | 52 | 22 | 2.0 | 0.0 | 0.00 | 0.00 | 0.00 | 85 | 1061.0 |
| 20260510024147 | 52 | 22 | 0.0 | 0.0 | 0.00 | 0.00 | 0.00 | 85 | 1061.0 |
| 20260510024033 | 52 | 22 | 0.0 | 0.0 | 0.00 | 0.00 | 0.00 | 85 | 1061.0 |
| 20260510023904 | 52 | 22 | 4.0 | 0.0 | 0.00 | 0.00 | 0.00 | 85 | 1061.0 |
| 20260510023751 | 52 | 45 | 3.0 | 0.0 | 0.00 | 0.00 | 0.00 | 85 | 1061.0 |
| 20260510023637 | 52 | 45 | 6.0 | 0.0 | 0.00 | 0.00 | 0.00 | 85 | 1061.0 |
| 20260510023516 | 52 | 22 | 4.0 | 0.0 | 0.00 | 0.00 | 0.00 | 85 | 1061.1 |
| 20260510023355 | 52 | 0 | 7.0 | 0.0 | 0.00 | 0.00 | 0.00 | 85 | 1061.0 |
| 20260510023234 | 52 | 45 | 3.0 | 0.0 | 0.00 | 0.00 | 0.00 | 85 | 1061.0 |
| 20260510023113 | 52 | 22 | 2.0 | 0.0 | 0.00 | 0.00 | 0.00 | 85 | 1061.0 |
| 20260510023000 | 52 | 0 | 3.0 | 0.0 | 0.00 | 0.00 | 0.00 | 85 | 1061.0 |
| 20260510022847 | 52 | 22 | 5.0 | 0.0 | 0.00 | 0.00 | 0.00 | 85 | 1061.0 |
| 20260510022733 | 52 | 22 | 4.0 | 0.0 | 0.00 | 0.00 | 0.00 | 85 | 1061.0 |
| 20260510022620 | 52 | 0 | 0.0 | 0.0 | 0.00 | 0.00 | 0.00 | 85 | 1060.9 |
| 20260510022509 | 52 | 22 | 6.0 | 0.0 | 0.00 | 0.00 | 0.00 | 85 | 1060.9 |
| 20260510022404 | 52 | 45 | 0.0 | 0.0 | 0.00 | 0.00 | 0.00 | 85 | 1060.9 |
| 20260510022249 | 52 | 22 | 4.0 | 0.0 | 0.00 | 0.00 | 0.00 | 85 | 1060.9 |
| 20260510022136 | 52 | 22 | 2.0 | 0.0 | 0.00 | 0.00 | 0.00 | 85 | 1061.0 |
| 20260510022031 | 52 | 22 | 5.0 | 0.0 | 0.00 | 0.00 | 0.00 | 85 | 1061.0 |
| 20260510021910 | 52 | 22 | 3.0 | 0.0 | 0.00 | 0.00 | 0.00 | 85 | 1061.1 |
| 20260510021757 | 52 | 0 | 4.0 | 0.0 | 0.00 | 0.00 | 0.00 | 85 | 1061.1 |
| 20260510021652 | 52 | 0 | 3.0 | 0.0 | 0.00 | 0.00 | 0.00 | 85 | 1061.1 |
| 20260510021530 | 52 | 337 | 5.0 | 0.0 | 0.00 | 0.00 | 0.00 | 85 | 1061.0 |
| 20260510021417 | 52 | 22 | 3.0 | 0.0 | 0.00 | 0.00 | 0.00 | 85 | 1061.1 |
| 20260510021304 | 52 | 45 | 5.0 | 0.0 | 0.00 | 0.00 | 0.00 | 85 | 1061.1 |
| 20260510021150 | 52 | 67 | 4.0 | 0.0 | 0.00 | 0.00 | 0.00 | 85 | 1061.1 |
| 20260510021018 | 52 | 22 | 7.0 | 0.0 | 0.00 | 0.00 | 0.00 | 85 | 1061.0 |
| 20260510020909 | 52 | 0 | 0.0 | 0.0 | 0.00 | 0.00 | 0.00 | 85 | 1061.0 |
| 20260510020756 | 52 | 0 | 1.0 | 0.0 | 0.00 | 0.00 | 0.00 | 85 | 1061.0 |
| 20260510020634 | 52 | 0 | 4.0 | 0.0 | 0.00 | 0.00 | 0.00 | 85 | 1061.0 |
| 20260510020521 | 52 | 0 | 3.0 | 0.0 | 0.00 | 0.00 | 0.00 | 84 | 1061.0 |
| 20260510020415 | 52 | 0 | 3.0 | 0.0 | 0.00 | 0.00 | 0.00 | 84 | 1061.0 |
| 20260510020310 | 52 | 45 | 5.0 | 0.0 | 0.00 | 0.00 | 0.00 | 84 | 1061.0 |
| 20260510020203 | 52 | 45 | 6.0 | 0.0 | 0.00 | 0.00 | 0.00 | 84 | 1061.0 |
| 20260510020057 | 53 | 45 | 0.0 | 0.0 | 0.00 | 0.00 | 0.00 | 84 | 1061.0 |
| 20260510015951 | 53 | 45 | 2.0 | 0.0 | 0.00 | 0.00 | 0.00 | 84 | 1061.0 |
| 20260510015845 | 53 | 22 | 5.0 | 0.0 | 0.00 | 0.00 | 0.00 | 84 | 1061.0 |
| 20260510015739 | 53 | 45 | 6.0 | 0.0 | 0.00 | 0.00 | 0.00 | 84 | 1061.0 |
| 20260510015632 | 53 | 45 | 3.0 | 0.0 | 0.00 | 0.00 | 0.00 | 84 | 1061.0 |
| 20260510015511 | 53 | 22 | 7.0 | 0.0 | 0.00 | 0.00 | 0.00 | 84 | 1061.0 |
| 20260510015358 | 53 | 22 | 2.0 | 0.0 | 0.00 | 0.00 | 0.00 | 84 | 1061.0 |
| 20260510015244 | 53 | 22 | 6.0 | 0.0 | 0.00 | 0.00 | 0.00 | 84 | 1061.0 |
| 20260510015130 | 53 | 45 | 7.0 | 0.0 | 0.00 | 0.00 | 0.00 | 84 | 1061.1 |
| 20260510015001 | 53 | 0 | 3.0 | 0.0 | 0.00 | 0.00 | 0.00 | 84 | 1061.0 |
| 20260510014840 | 53 | 45 | 5.0 | 0.0 | 0.00 | 0.00 | 0.00 | 84 | 1061.1 |
| 20260510014718 | 53 | 45 | 5.0 | 0.0 | 0.00 | 0.00 | 0.00 | 83 | 1061.0 |
| 20260510014613 | 53 | 22 | 8.0 | 0.0 | 0.00 | 0.00 | 0.00 | 83 | 1061.1 |
| 20260510014452 | 53 | 22 | 6.0 | 0.0 | 0.00 | 0.00 | 0.00 | 83 | 1061.0 |
| 20260510014339 | 53 | 45 | 6.0 | 0.0 | 0.00 | 0.00 | 0.00 | 83 | 1061.0 |
| 20260510014234 | 53 | 22 | 1.0 | 0.0 | 0.00 | 0.00 | 0.00 | 83 | 1061.1 |
| 20260510014121 | 53 | 45 | 2.0 | 0.0 | 0.00 | 0.00 | 0.00 | 84 | 1061.1 |
| 20260510014007 | 53 | 45 | 0.0 | 0.0 | 0.00 | 0.00 | 0.00 | 84 | 1061.1 |
| 20260510013846 | 53 | 45 | 4.0 | 0.0 | 0.00 | 0.00 | 0.00 | 84 | 1061.1 |
| 20260510013740 | 53 | 45 | 0.0 | 0.0 | 0.00 | 0.00 | 0.00 | 84 | 1061.1 |
| 20260510013626 | 53 | 45 | 2.0 | 0.0 | 0.00 | 0.00 | 0.00 | 84 | 1061.1 |
| 20260510013505 | 53 | 22 | 6.0 | 0.0 | 0.00 | 0.00 | 0.00 | 84 | 1061.2 |
| 20260510013352 | 53 | 22 | 4.0 | 0.0 | 0.00 | 0.00 | 0.00 | 84 | 1061.2 |
| 20260510013240 | 53 | 45 | 4.0 | 0.0 | 0.00 | 0.00 | 0.00 | 84 | 1061.1 |
| 20260510013126 | 53 | 45 | 3.0 | 0.0 | 0.00 | 0.00 | 0.00 | 84 | 1061.2 |
| 20260510013013 | 53 | 0 | 5.0 | 0.0 | 0.00 | 0.00 | 0.00 | 84 | 1061.2 |
| 20260510012900 | 53 | 22 | 5.0 | 0.0 | 0.00 | 0.00 | 0.00 | 84 | 1061.1 |
| 20260510012746 | 53 | 0 | 3.0 | 0.0 | 0.00 | 0.00 | 0.00 | 84 | 1061.1 |
| 20260510012625 | 53 | 45 | 1.0 | 0.0 | 0.00 | 0.00 | 0.00 | 85 | 1061.1 |
| 20260510012512 | 53 | 0 | 5.0 | 0.0 | 0.00 | 0.00 | 0.00 | 85 | 1061.2 |
| 20260510012359 | 53 | 45 | 3.0 | 0.0 | 0.00 | 0.00 | 0.00 | 85 | 1061.1 |
| 20260510012253 | 53 | 45 | 2.0 | 0.0 | 0.00 | 0.00 | 0.00 | 85 | 1061.1 |
| 20260510012141 | 53 | 45 | 2.0 | 0.0 | 0.00 | 0.00 | 0.00 | 85 | 1061.1 |
| 20260510012019 | 53 | 45 | 6.0 | 0.0 | 0.00 | 0.00 | 0.00 | 85 | 1061.1 |
| 20260510011906 | 53 | 45 | 2.0 | 0.0 | 0.00 | 0.00 | 0.00 | 85 | 1061.1 |
| 20260510011801 | 53 | 45 | 5.0 | 0.0 | 0.00 | 0.00 | 0.00 | 85 | 1061.1 |
| 20260510011648 | 53 | 45 | 1.0 | 0.0 | 0.00 | 0.00 | 0.00 | 85 | 1061.2 |
| 20260510011527 | 53 | 22 | 4.0 | 0.0 | 0.00 | 0.00 | 0.00 | 85 | 1061.1 |
| 20260510011414 | 53 | 0 | 2.0 | 0.0 | 0.00 | 0.00 | 0.00 | 85 | 1061.1 |
| 20260510011256 | 53 | 67 | 5.0 | 0.0 | 0.00 | 0.00 | 0.00 | 85 | 1061.1 |
| 20260510011142 | 53 | 45 | 8.0 | 0.0 | 0.00 | 0.00 | 0.00 | 85 | 1061.1 |
| 20260510011022 | 53 | 67 | 1.0 | 0.0 | 0.00 | 0.00 | 0.00 | 85 | 1061.1 |
| 20260510010908 | 53 | 45 | 9.0 | 0.0 | 0.00 | 0.00 | 0.00 | 85 | 1061.1 |
| 20260510010754 | 53 | 45 | 2.0 | 0.0 | 0.00 | 0.00 | 0.00 | 85 | 1061.1 |
| 20260510010525 | 53 | 45 | 6.0 | 0.0 | 0.00 | 0.00 | 0.00 | 86 | 1061.1 |
| 20260510005936 | 53 | 67 | 4.0 | 0.0 | 0.00 | 0.00 | 0.00 | 86 | 1061.1 |
| 20260510005832 | 53 | 45 | 7.0 | 0.0 | 0.00 | 0.00 | 0.00 | 85 | 1061.1 |
| 20260510005720 | 53 | 45 | 4.0 | 0.0 | 0.00 | 0.00 | 0.00 | 85 | 1061.0 |
| 20260510005613 | 53 | 45 | 5.0 | 0.0 | 0.00 | 0.00 | 0.00 | 85 | 1061.1 |
| 20260510005509 | 53 | 45 | 5.0 | 0.0 | 0.00 | 0.00 | 0.00 | 85 | 1061.2 |
| 20260510005403 | 53 | 45 | 7.0 | 0.0 | 0.00 | 0.00 | 0.00 | 85 | 1061.2 |
| 20260510005251 | 53 | 67 | 5.0 | 0.0 | 0.00 | 0.00 | 0.00 | 85 | 1061.1 |
| 20260510005145 | 53 | 45 | 5.0 | 0.0 | 0.00 | 0.00 | 0.00 | 85 | 1061.2 |
| 20260510005040 | 53 | 45 | 3.0 | 0.0 | 0.00 | 0.00 | 0.00 | 85 | 1061.2 |
| 20260510004927 | 53 | 22 | 3.0 | 0.0 | 0.00 | 0.00 | 0.00 | 85 | 1061.2 |
| 20260510004813 | 53 | 45 | 5.0 | 0.0 | 0.00 | 0.00 | 0.00 | 85 | 1061.2 |
| 20260510004655 | 53 | 45 | 3.0 | 0.0 | 0.00 | 0.00 | 0.00 | 85 | 1061.2 |
| 20260510004547 | 53 | 67 | 4.0 | 0.0 | 0.00 | 0.00 | 0.00 | 85 | 1061.2 |
| 20260510004434 | 52 | 45 | 5.0 | 0.0 | 0.00 | 0.00 | 0.00 | 85 | 1061.3 |
| 20260510004321 | 53 | 45 | 6.0 | 0.0 | 0.00 | 0.00 | 0.00 | 85 | 1061.3 |
| 20260510004216 | 53 | 45 | 5.0 | 0.0 | 0.00 | 0.00 | 0.00 | 85 | 1061.3 |
| 20260510004103 | 53 | 45 | 7.0 | 0.0 | 0.00 | 0.00 | 0.00 | 85 | 1061.3 |
| 20260510003950 | 53 | 90 | 0.0 | 0.0 | 0.00 | 0.00 | 0.00 | 85 | 1061.3 |
| 20260510003845 | 53 | 45 | 4.0 | 0.0 | 0.00 | 0.00 | 0.00 | 85 | 1061.4 |
| 20260510003732 | 53 | 112 | 0.0 | 0.0 | 0.00 | 0.00 | 0.00 | 85 | 1061.4 |
| 20260510003610 | 53 | 45 | 6.0 | 0.0 | 0.00 | 0.00 | 0.00 | 85 | 1061.4 |
| 20260510003451 | 53 | 22 | 1.0 | 0.0 | 0.00 | 0.00 | 0.00 | 85 | 1061.5 |
| 20260510003345 | 53 | 45 | 6.0 | 0.0 | 0.00 | 0.00 | 0.00 | 85 | 1061.5 |
| 20260510003239 | 53 | 22 | 7.0 | 0.0 | 0.00 | 0.00 | 0.00 | 85 | 1061.5 |
| 20260510003118 | 53 | 67 | 4.0 | 0.0 | 0.00 | 0.00 | 0.00 | 85 | 1061.6 |
| 20260510002958 | 53 | 45 | 6.0 | 0.0 | 0.00 | 0.00 | 0.00 | 84 | 1061.5 |
| 20260510002851 | 53 | 45 | 0.0 | 0.0 | 0.00 | 0.00 | 0.00 | 84 | 1061.5 |
| 20260510002746 | 53 | 22 | 6.0 | 0.0 | 0.00 | 0.00 | 0.00 | 84 | 1061.5 |
| 20260510002631 | 53 | 22 | 7.0 | 0.0 | 0.00 | 0.00 | 0.00 | 84 | 1061.5 |
| 20260510002500 | 53 | 45 | 3.0 | 0.0 | 0.00 | 0.00 | 0.00 | 84 | 1061.6 |
| 20260510002323 | 53 | 22 | 3.0 | 0.0 | 0.00 | 0.00 | 0.00 | 84 | 1061.5 |
| 20260510002206 | 53 | 22 | 4.0 | 0.0 | 0.00 | 0.00 | 0.00 | 84 | 1061.5 |
| 20260510002100 | 53 | 45 | 0.0 | 0.0 | 0.00 | 0.00 | 0.00 | 84 | 1061.6 |
| 20260510001954 | 53 | 22 | 0.0 | 0.0 | 0.00 | 0.00 | 0.00 | 84 | 1061.6 |
| 20260510001848 | 53 | 45 | 1.0 | 0.0 | 0.00 | 0.00 | 0.00 | 84 | 1061.6 |
| 20260510001726 | 53 | 45 | 7.0 | 0.0 | 0.00 | 0.00 | 0.00 | 84 | 1061.6 |
| 20260510001619 | 53 | 22 | 5.0 | 0.0 | 0.00 | 0.00 | 0.00 | 84 | 1061.5 |
| 20260510001505 | 53 | 67 | 4.0 | 0.0 | 0.00 | 0.00 | 0.00 | 84 | 1061.5 |
| 20260510001352 | 53 | 45 | 5.0 | 0.0 | 0.00 | 0.00 | 0.00 | 83 | 1061.5 |
| 20260510001245 | 53 | 45 | 6.0 | 0.0 | 0.00 | 0.00 | 0.00 | 83 | 1061.5 |
| 20260510001135 | 53 | 22 | 5.0 | 0.0 | 0.00 | 0.00 | 0.00 | 83 | 1061.5 |
| 20260510001026 | 53 | 45 | 4.0 | 0.0 | 0.00 | 0.00 | 0.00 | 83 | 1061.6 |
| 20260510000915 | 53 | 67 | 4.0 | 0.0 | 0.00 | 0.00 | 0.00 | 83 | 1061.7 |
| 20260510000801 | 53 | 45 | 5.0 | 0.0 | 0.00 | 0.00 | 0.00 | 83 | 1061.6 |
| 20260510000647 | 53 | 112 | 7.0 | 0.0 | 0.00 | 0.00 | 0.00 | 83 | 1061.7 |
| 20260510000540 | 53 | 67 | 4.0 | 0.0 | 0.00 | 0.00 | 0.00 | 83 | 1061.7 |
| 20260510000427 | 53 | 67 | 4.0 | 0.0 | 0.00 | 0.00 | 0.00 | 83 | 1061.8 |
| 20260510000307 | 53 | 112 | 0.0 | 0.0 | 0.00 | 0.00 | 0.00 | 83 | 1061.7 |
| 20260510000200 | 53 | 90 | 7.0 | 0.0 | 0.00 | 0.00 | 0.00 | 83 | 1061.5 |
| 20260510000047 | 53 | 90 | 4.0 | 0.0 | 0.00 | 0.00 | 0.00 | 83 | 1061.7 |
| 20260509235942 | 53 | 67 | 2.0 | 0.0 | 0.00 | 0.00 | 0.00 | 83 | 1061.7 |
| 20260509235820 | 53 | 112 | 4.0 | 0.0 | 0.00 | 0.00 | 0.00 | 83 | 1061.7 |
| 20260509235707 | 53 | 67 | 3.0 | 0.0 | 0.00 | 0.00 | 0.00 | 83 | 1061.7 |
| 20260509235554 | 53 | 112 | 5.0 | 0.0 | 0.00 | 0.00 | 0.00 | 83 | 1061.8 |
| 20260509235441 | 53 | 90 | 4.0 | 0.0 | 0.00 | 0.00 | 0.00 | 83 | 1061.9 |
| 20260509235331 | 53 | 45 | 6.0 | 0.0 | 0.00 | 0.00 | 0.00 | 83 | 1061.7 |
| 20260509235225 | 53 | 90 | 0.0 | 0.0 | 0.00 | 0.00 | 0.00 | 83 | 1061.8 |
| 20260509235112 | 53 | 67 | 11.0 | 0.0 | 0.00 | 0.00 | 0.00 | 83 | 1061.8 |
| 20260509235007 | 53 | 90 | 5.0 | 0.0 | 0.00 | 0.00 | 0.00 | 83 | 1061.9 |
| 20260509234901 | 53 | 112 | 4.0 | 0.0 | 0.00 | 0.00 | 0.00 | 83 | 1061.9 |
| 20260509234746 | 53 | 45 | 4.0 | 0.0 | 0.00 | 0.00 | 0.00 | 83 | 1061.9 |
| 20260509234641 | 53 | 45 | 6.0 | 0.0 | 0.00 | 0.00 | 0.00 | 83 | 1062.0 |
| 20260509234534 | 53 | 45 | 4.0 | 0.0 | 0.00 | 0.00 | 0.00 | 83 | 1061.9 |
| 20260509234428 | 53 | 67 | 4.0 | 0.0 | 0.00 | 0.00 | 0.00 | 83 | 1062.0 |
| 20260509234306 | 53 | 45 | 1.0 | 0.0 | 0.00 | 0.00 | 0.00 | 83 | 1061.9 |
| 20260509234151 | 53 | 22 | 6.0 | 0.0 | 0.00 | 0.00 | 0.00 | 83 | 1062.0 |
| 20260509234037 | 53 | 22 | 7.0 | 0.0 | 0.00 | 0.00 | 0.00 | 83 | 1061.9 |
| 20260509233931 | 53 | 45 | 2.0 | 0.0 | 0.00 | 0.00 | 0.00 | 82 | 1061.9 |
| 20260509233825 | 53 | 45 | 4.0 | 0.0 | 0.00 | 0.00 | 0.00 | 82 | 1062.0 |
| 20260509233719 | 53 | 0 | 3.0 | 0.0 | 0.00 | 0.00 | 0.00 | 82 | 1062.0 |
| 20260509233605 | 53 | 45 | 1.0 | 0.0 | 0.00 | 0.00 | 0.00 | 82 | 1061.9 |
| 20260509233451 | 53 | 45 | 4.0 | 0.0 | 0.00 | 0.00 | 0.00 | 82 | 1061.9 |
| 20260509233344 | 53 | 90 | 3.0 | 0.0 | 0.00 | 0.00 | 0.00 | 82 | 1062.0 |
| 20260509233223 | 53 | 22 | 2.0 | 0.0 | 0.00 | 0.00 | 0.00 | 82 | 1062.0 |
| 20260509233116 | 53 | 22 | 6.0 | 0.0 | 0.00 | 0.00 | 0.00 | 82 | 1062.0 |
| 20260509233011 | 53 | 22 | 3.0 | 0.0 | 0.00 | 0.00 | 0.00 | 82 | 1062.0 |
| 20260509232857 | 53 | 45 | 5.0 | 0.0 | 0.00 | 0.00 | 0.00 | 82 | 1062.0 |
| 20260509232747 | 53 | 22 | 0.0 | 0.0 | 0.00 | 0.00 | 0.00 | 82 | 1062.1 |
| 20260509232641 | 53 | 45 | 6.0 | 0.0 | 0.00 | 0.00 | 0.00 | 82 | 1062.0 |
| 20260509232534 | 53 | 0 | 5.0 | 0.0 | 0.00 | 0.00 | 0.00 | 81 | 1062.0 |
| 20260509232414 | 53 | 45 | 3.0 | 0.0 | 0.00 | 0.00 | 0.00 | 81 | 1062.0 |
| 20260509232244 | 53 | 22 | 1.0 | 0.0 | 0.00 | 0.00 | 0.00 | 81 | 1062.0 |
| 20260509232124 | 53 | 22 | 5.0 | 0.0 | 0.00 | 0.00 | 0.00 | 81 | 1062.0 |
| 20260509232003 | 53 | 22 | 5.0 | 0.0 | 0.00 | 0.00 | 0.00 | 81 | 1062.1 |
| 20260509231847 | 53 | 22 | 2.0 | 0.0 | 0.00 | 0.00 | 0.00 | 81 | 1062.0 |
| 20260509231718 | 53 | 67 | 0.0 | 0.0 | 0.00 | 0.00 | 0.00 | 81 | 1062.2 |
| 20260509231605 | 53 | 22 | 0.0 | 0.0 | 0.00 | 0.00 | 0.00 | 81 | 1062.1 |
| 20260509231452 | 53 | 22 | 2.0 | 0.0 | 0.00 | 0.00 | 0.00 | 81 | 1062.1 |
| 20260509231323 | 53 | 22 | 0.0 | 0.0 | 0.00 | 0.00 | 0.00 | 81 | 1062.1 |
| 20260509231217 | 53 | 67 | 8.0 | 0.0 | 0.00 | 0.00 | 0.00 | 80 | 1062.2 |
| 20260509231104 | 53 | 22 | 0.0 | 0.0 | 0.00 | 0.00 | 0.00 | 80 | 1062.2 |
| 20260509230954 | 53 | 45 | 8.0 | 0.0 | 0.00 | 0.00 | 0.00 | 80 | 1062.1 |
| 20260509230846 | 53 | 45 | 6.0 | 0.0 | 0.00 | 0.00 | 0.00 | 80 | 1062.2 |
| 20260509230733 | 53 | 45 | 2.0 | 0.0 | 0.00 | 0.00 | 0.00 | 80 | 1062.2 |
| 20260509230620 | 53 | 45 | 5.0 | 0.0 | 0.00 | 0.00 | 0.00 | 80 | 1062.2 |
| 20260509230515 | 53 | 67 | 2.0 | 0.0 | 0.00 | 0.00 | 0.00 | 80 | 1062.2 |
| 20260509230356 | 53 | 45 | 5.0 | 0.0 | 0.00 | 0.00 | 0.00 | 80 | 1062.2 |
| 20260509230241 | 53 | 45 | 6.0 | 0.0 | 0.00 | 0.00 | 0.00 | 80 | 1062.3 |
| 20260509230128 | 53 | 45 | 7.0 | 0.0 | 0.00 | 0.00 | 0.00 | 80 | 1062.3 |
| 20260509230017 | 53 | 67 | 2.0 | 0.0 | 0.00 | 0.00 | 0.00 | 80 | 1062.3 |
| 20260509225912 | 53 | 45 | 0.0 | 0.0 | 0.00 | 0.00 | 0.00 | 80 | 1062.3 |
| 20260509225756 | 53 | 45 | 6.0 | 0.0 | 0.00 | 0.00 | 0.00 | 80 | 1062.4 |
| 20260509225636 | 53 | 45 | 3.0 | 0.0 | 0.00 | 0.00 | 0.00 | 80 | 1062.3 |
| 20260509225530 | 53 | 112 | 5.0 | 0.0 | 0.00 | 0.00 | 0.00 | 80 | 1062.4 |
| 20260509225410 | 53 | 112 | 4.0 | 0.0 | 0.00 | 0.00 | 0.00 | 80 | 1062.4 |
| 20260509225256 | 53 | 90 | 4.0 | 0.0 | 0.00 | 0.00 | 0.00 | 80 | 1062.4 |
| 20260509225135 | 53 | 67 | 6.0 | 0.0 | 0.00 | 0.00 | 0.00 | 80 | 1062.4 |
| 20260509225021 | 53 | 45 | 4.0 | 0.0 | 0.00 | 0.00 | 0.00 | 80 | 1062.5 |
| 20260509224900 | 53 | 45 | 10.0 | 0.0 | 0.00 | 0.00 | 0.00 | 80 | 1062.4 |
| 20260509224742 | 53 | 90 | 3.0 | 0.0 | 0.00 | 0.00 | 0.00 | 80 | 1062.5 |
| 20260509224634 | 53 | 45 | 6.0 | 0.0 | 0.00 | 0.00 | 0.00 | 80 | 1062.5 |
| 20260509224512 | 53 | 45 | 8.0 | 0.0 | 0.00 | 0.00 | 0.00 | 80 | 1062.5 |
| 20260509224343 | 53 | 45 | 4.0 | 0.0 | 0.00 | 0.00 | 0.00 | 80 | 1062.5 |
| 20260509224214 | 53 | 67 | 6.0 | 0.0 | 0.00 | 0.00 | 0.00 | 80 | 1062.5 |
| 20260509224052 | 53 | 45 | 6.0 | 0.0 | 0.00 | 0.00 | 0.00 | 80 | 1062.5 |
| 20260509223926 | 53 | 67 | 6.0 | 0.0 | 0.00 | 0.00 | 0.00 | 80 | 1062.5 |
| 20260509223821 | 53 | 45 | 2.0 | 0.0 | 0.00 | 0.00 | 0.00 | 79 | 1062.6 |
| 20260509223716 | 53 | 90 | 3.0 | 0.0 | 0.00 | 0.00 | 0.00 | 79 | 1062.5 |
| 20260509223609 | 53 | 112 | 0.0 | 0.0 | 0.00 | 0.00 | 0.00 | 79 | 1062.6 |
| 20260509223447 | 53 | 67 | 4.0 | 0.0 | 0.00 | 0.00 | 0.00 | 79 | 1062.6 |
| 20260509223317 | 53 | 90 | 2.0 | 0.0 | 0.00 | 0.00 | 0.00 | 79 | 1062.6 |
| 20260509223158 | 53 | 67 | 2.0 | 0.0 | 0.00 | 0.00 | 0.00 | 79 | 1062.7 |
| 20260509223054 | 53 | 45 | 5.0 | 0.0 | 0.00 | 0.00 | 0.00 | 79 | 1062.6 |
| 20260509222946 | 53 | 90 | 0.0 | 0.0 | 0.00 | 0.00 | 0.00 | 79 | 1062.7 |
| 20260509222826 | 53 | 67 | 5.0 | 0.0 | 0.00 | 0.00 | 0.00 | 79 | 1062.6 |
| 20260509222712 | 53 | 67 | 7.0 | 0.0 | 0.00 | 0.00 | 0.00 | 79 | 1062.7 |
| 20260509222600 | 53 | 45 | 9.0 | 0.0 | 0.00 | 0.00 | 0.00 | 79 | 1062.7 |
| 20260509222439 | 53 | 22 | 10.0 | 0.0 | 0.00 | 0.00 | 0.00 | 78 | 1062.7 |
| 20260509222333 | 53 | 67 | 2.0 | 0.0 | 0.00 | 0.00 | 0.00 | 78 | 1062.8 |
| 20260509222213 | 53 | 67 | 3.0 | 0.0 | 0.00 | 0.00 | 0.00 | 79 | 1062.7 |
| 20260509222058 | 53 | 90 | 1.0 | 0.0 | 0.00 | 0.00 | 0.00 | 79 | 1062.7 |
| 20260509221937 | 53 | 45 | 6.0 | 0.0 | 0.00 | 0.00 | 0.00 | 78 | 1062.7 |
| 20260509221816 | 53 | 90 | 6.0 | 0.0 | 0.00 | 0.00 | 0.00 | 78 | 1062.7 |
| 20260509221649 | 53 | 90 | 3.0 | 0.0 | 0.00 | 0.00 | 0.00 | 78 | 1062.7 |
| 20260509221543 | 53 | 45 | 5.0 | 0.0 | 0.00 | 0.00 | 0.00 | 78 | 1062.7 |
| 20260509221437 | 53 | 67 | 6.0 | 0.0 | 0.00 | 0.00 | 0.00 | 78 | 1062.7 |
| 20260509221330 | 53 | 45 | 5.0 | 0.0 | 0.00 | 0.00 | 0.00 | 78 | 1062.7 |
| 20260509221209 | 53 | 90 | 5.0 | 0.0 | 0.00 | 0.00 | 0.00 | 78 | 1062.7 |
| 20260509221042 | 53 | 45 | 7.0 | 0.0 | 0.00 | 0.00 | 0.00 | 78 | 1062.7 |
| 20260509220934 | 53 | 45 | 3.0 | 0.0 | 0.00 | 0.00 | 0.00 | 78 | 1062.7 |
| 20260509220821 | 53 | 67 | 6.0 | 0.0 | 0.00 | 0.00 | 0.00 | 78 | 1062.7 |
| 20260509220709 | 53 | 45 | 5.0 | 0.0 | 0.00 | 0.00 | 0.00 | 78 | 1062.7 |
| 20260509220547 | 53 | 45 | 5.0 | 0.0 | 0.00 | 0.00 | 0.00 | 78 | 1062.7 |
| 20260509220417 | 53 | 22 | 5.0 | 0.0 | 0.00 | 0.00 | 0.00 | 78 | 1062.8 |
| 20260509220256 | 53 | 45 | 7.0 | 0.0 | 0.00 | 0.00 | 0.00 | 78 | 1062.7 |
| 20260509220144 | 53 | 67 | 5.0 | 0.0 | 0.00 | 0.00 | 0.00 | 78 | 1062.7 |
| 20260509220021 | 53 | 0 | 4.0 | 0.0 | 0.00 | 0.00 | 0.00 | 78 | 1062.7 |
| 20260509215855 | 53 | 45 | 8.0 | 0.0 | 0.00 | 0.00 | 0.00 | 78 | 1062.8 |
| 20260509215740 | 53 | 45 | 4.0 | 0.0 | 0.00 | 0.00 | 0.00 | 78 | 1062.8 |
| 20260509215627 | 53 | 45 | 3.0 | 0.0 | 0.00 | 0.00 | 0.00 | 78 | 1062.8 |
| 20260509215514 | 53 | 45 | 6.0 | 0.0 | 0.00 | 0.00 | 0.00 | 78 | 1062.8 |
| 20260509215409 | 53 | 45 | 4.0 | 0.0 | 0.00 | 0.00 | 0.00 | 78 | 1062.8 |
| 20260509215249 | 53 | 67 | 6.0 | 0.0 | 0.00 | 0.00 | 0.00 | 78 | 1062.8 |
| 20260509215142 | 53 | 22 | 6.0 | 0.0 | 0.00 | 0.00 | 0.00 | 78 | 1062.8 |
| 20260509215022 | 53 | 45 | 6.0 | 0.0 | 0.00 | 0.00 | 0.00 | 78 | 1062.8 |
| 20260509214902 | 53 | 45 | 6.0 | 0.0 | 0.00 | 0.00 | 0.00 | 78 | 1062.8 |
| 20260509214754 | 53 | 22 | 3.0 | 0.0 | 0.00 | 0.00 | 0.00 | 78 | 1062.8 |
| 20260509214641 | 53 | 22 | 1.0 | 0.0 | 0.00 | 0.00 | 0.00 | 78 | 1062.8 |
| 20260509214522 | 53 | 22 | 4.0 | 0.0 | 0.00 | 0.00 | 0.00 | 78 | 1062.8 |
| 20260509214415 | 53 | 0 | 4.0 | 0.0 | 0.00 | 0.00 | 0.00 | 78 | 1062.8 |
| 20260509214253 | 53 | 90 | 1.0 | 0.0 | 0.00 | 0.00 | 0.00 | 78 | 1062.8 |
| 20260509214124 | 53 | 45 | 8.0 | 0.0 | 0.00 | 0.00 | 0.00 | 77 | 1062.8 |
| 20260509214005 | 53 | 67 | 3.0 | 0.0 | 0.00 | 0.00 | 0.00 | 77 | 1062.8 |
| 20260509213850 | 53 | 45 | 6.0 | 0.0 | 0.00 | 0.00 | 0.00 | 77 | 1062.9 |
| 20260509213728 | 53 | 67 | 3.0 | 0.0 | 0.00 | 0.00 | 0.00 | 77 | 1062.8 |
| 20260509213600 | 53 | 45 | 3.0 | 0.0 | 0.00 | 0.00 | 0.00 | 77 | 1062.9 |
| 20260509213446 | 53 | 67 | 2.0 | 0.0 | 0.00 | 0.00 | 0.00 | 77 | 1062.9 |
| 20260509213326 | 53 | 90 | 5.0 | 0.0 | 0.00 | 0.00 | 0.00 | 77 | 1062.9 |
| 20260509213212 | 53 | 112 | 2.0 | 0.0 | 0.00 | 0.00 | 0.00 | 77 | 1063.0 |
| 20260509213101 | 53 | 90 | 5.0 | 0.0 | 0.00 | 0.00 | 0.00 | 77 | 1062.9 |
| 20260509212954 | 53 | 90 | 7.0 | 0.0 | 0.00 | 0.00 | 0.00 | 77 | 1062.9 |
| 20260509212840 | 53 | 90 | 6.0 | 0.0 | 0.00 | 0.00 | 0.00 | 77 | 1063.0 |
| 20260509212721 | 53 | 112 | 8.0 | 0.0 | 0.00 | 0.00 | 0.00 | 77 | 1063.0 |
| 20260509212614 | 53 | 45 | 3.0 | 0.0 | 0.00 | 0.00 | 0.00 | 77 | 1063.0 |
| 20260509212502 | 53 | 67 | 5.0 | 0.0 | 0.00 | 0.00 | 0.00 | 77 | 1063.0 |
| 20260509212357 | 53 | 67 | 3.0 | 0.0 | 0.00 | 0.00 | 0.00 | 77 | 1063.0 |
| 20260509212252 | 53 | 90 | 3.0 | 0.0 | 0.00 | 0.00 | 0.00 | 77 | 1063.0 |
| 20260509212130 | 53 | 67 | 2.0 | 0.0 | 0.00 | 0.00 | 0.00 | 77 | 1063.0 |
| 20260509212009 | 53 | 90 | 4.0 | 0.0 | 0.00 | 0.00 | 0.00 | 77 | 1063.0 |
| 20260509211848 | 53 | 67 | 2.0 | 0.0 | 0.00 | 0.00 | 0.00 | 76 | 1063.1 |
| 20260509211721 | 53 | 90 | 8.0 | 0.0 | 0.00 | 0.00 | 0.00 | 76 | 1063.0 |
| 20260509211613 | 53 | 45 | 8.0 | 0.0 | 0.00 | 0.00 | 0.00 | 76 | 1063.0 |
| 20260509211452 | 53 | 90 | 3.0 | 0.0 | 0.00 | 0.00 | 0.00 | 76 | 1063.1 |
| 20260509211339 | 53 | 45 | 4.0 | 0.0 | 0.00 | 0.00 | 0.00 | 76 | 1063.1 |
| 20260509211220 | 53 | 90 | 5.0 | 0.0 | 0.00 | 0.00 | 0.00 | 76 | 1063.0 |
| 20260509211105 | 53 | 90 | 4.0 | 0.0 | 0.00 | 0.00 | 0.00 | 76 | 1063.0 |
| 20260509210943 | 53 | 112 | 9.0 | 0.0 | 0.00 | 0.00 | 0.00 | 75 | 1063.0 |
| 20260509210833 | 53 | 45 | 6.0 | 0.0 | 0.00 | 0.00 | 0.00 | 75 | 1062.9 |
| 20260509210727 | 53 | 45 | 10.0 | 0.0 | 0.00 | 0.00 | 0.00 | 75 | 1062.9 |
| 20260509210622 | 53 | 90 | 9.0 | 0.0 | 0.00 | 0.00 | 0.00 | 74 | 1062.9 |
| 20260509210517 | 53 | 45 | 0.0 | 0.0 | 0.00 | 0.00 | 0.00 | 74 | 1062.9 |
| 20260509210401 | 53 | 45 | 5.0 | 0.0 | 0.00 | 0.00 | 0.00 | 74 | 1062.9 |
| 20260509210249 | 53 | 90 | 5.0 | 0.0 | 0.00 | 0.00 | 0.00 | 74 | 1063.0 |
| 20260509210127 | 53 | 67 | 5.0 | 0.0 | 0.00 | 0.00 | 0.00 | 74 | 1062.9 |
| 20260509210007 | 53 | 22 | 4.0 | 0.0 | 0.00 | 0.00 | 0.00 | 74 | 1063.0 |
| 20260509205846 | 53 | 45 | 8.0 | 0.0 | 0.00 | 0.00 | 0.00 | 73 | 1063.0 |
| 20260509205733 | 53 | 45 | 7.0 | 0.0 | 0.00 | 0.00 | 0.00 | 73 | 1063.0 |
| 20260509205628 | 53 | 45 | 7.0 | 0.0 | 0.00 | 0.00 | 0.00 | 73 | 1063.0 |
| 20260509205514 | 53 | 45 | 6.0 | 0.0 | 0.00 | 0.00 | 0.00 | 73 | 1063.0 |
| 20260509205345 | 53 | 45 | 9.0 | 0.0 | 0.00 | 0.00 | 0.00 | 72 | 1063.1 |
| 20260509205231 | 53 | 22 | 4.0 | 0.0 | 0.00 | 0.00 | 0.00 | 72 | 1063.0 |
| 20260509205118 | 53 | 90 | 2.0 | 0.0 | 0.00 | 0.00 | 0.00 | 72 | 1063.1 |
| 20260509204948 | 53 | 67 | 6.0 | 0.0 | 0.00 | 0.00 | 0.00 | 73 | 1063.0 |
| 20260509204836 | 53 | 112 | 5.0 | 0.0 | 0.00 | 0.00 | 0.00 | 73 | 1063.1 |
| 20260509204717 | 53 | 90 | 5.0 | 0.0 | 0.00 | 0.00 | 0.00 | 73 | 1063.1 |
| 20260509204610 | 53 | 45 | 3.0 | 0.0 | 0.00 | 0.00 | 0.00 | 73 | 1063.1 |
| 20260509204456 | 53 | 67 | 2.0 | 0.0 | 0.00 | 0.00 | 0.00 | 73 | 1063.1 |
| 20260509204327 | 53 | 45 | 5.0 | 0.0 | 0.00 | 0.00 | 0.00 | 73 | 1063.2 |
| 20260509204213 | 53 | 22 | 4.0 | 0.0 | 0.00 | 0.00 | 0.00 | 74 | 1063.2 |
| 20260509204044 | 53 | 45 | 6.0 | 0.0 | 0.00 | 0.00 | 0.00 | 74 | 1063.2 |
| 20260509203932 | 53 | 67 | 5.0 | 0.0 | 0.00 | 0.00 | 0.00 | 74 | 1063.2 |
| 20260509203809 | 53 | 67 | 0.0 | 0.0 | 0.00 | 0.00 | 0.00 | 74 | 1063.2 |
| 20260509203650 | 53 | 45 | 2.0 | 0.0 | 0.00 | 0.00 | 0.00 | 74 | 1063.2 |
| 20260509203536 | 53 | 67 | 6.0 | 0.0 | 0.00 | 0.00 | 0.00 | 74 | 1063.1 |
| 20260509203417 | 53 | 67 | 3.0 | 0.0 | 0.00 | 0.00 | 0.00 | 74 | 1063.2 |
| 20260509203310 | 53 | 67 | 6.0 | 0.0 | 0.00 | 0.00 | 0.00 | 74 | 1063.2 |
| 20260509203157 | 53 | 67 | 5.0 | 0.0 | 0.00 | 0.00 | 0.00 | 74 | 1063.2 |
| 20260509203035 | 53 | 90 | 4.0 | 0.0 | 0.00 | 0.00 | 0.00 | 74 | 1063.1 |
| 20260509202924 | 53 | 67 | 1.0 | 0.0 | 0.00 | 0.00 | 0.00 | 74 | 1063.1 |
| 20260509202810 | 54 | 45 | 3.0 | 0.0 | 0.00 | 0.00 | 0.00 | 74 | 1063.1 |
| 20260509202545 | 53 | 90 | 3.0 | 0.0 | 0.00 | 0.00 | 0.00 | 74 | 1063.1 |
| 20260509202440 | 54 | 90 | 4.0 | 0.0 | 0.00 | 0.00 | 0.00 | 74 | 1063.2 |
| 20260509202327 | 54 | 45 | 3.0 | 0.0 | 0.00 | 0.00 | 0.00 | 74 | 1063.2 |
| 20260509202221 | 54 | 67 | 4.0 | 0.0 | 0.00 | 0.00 | 0.00 | 74 | 1063.2 |
| 20260509202117 | 54 | 45 | 6.0 | 0.0 | 0.00 | 0.00 | 0.00 | 74 | 1063.3 |
| 20260509202009 | 54 | 45 | 4.0 | 0.0 | 0.00 | 0.00 | 0.00 | 74 | 1063.2 |
| 20260509201856 | 54 | 45 | 3.0 | 0.0 | 0.00 | 0.00 | 0.00 | 74 | 1063.2 |
| 20260509201737 | 54 | 45 | 2.0 | 0.0 | 0.00 | 0.00 | 0.00 | 74 | 1063.2 |
| 20260509201610 | 54 | 45 | 6.0 | 0.0 | 0.00 | 0.00 | 0.00 | 74 | 1063.2 |
| 20260509201457 | 54 | 45 | 9.0 | 0.0 | 0.00 | 0.00 | 0.00 | 74 | 1063.2 |
| 20260509201342 | 54 | 90 | 3.0 | 0.0 | 0.00 | 0.00 | 0.00 | 74 | 1063.2 |
| 20260509201220 | 54 | 45 | 0.0 | 0.0 | 0.00 | 0.00 | 0.00 | 74 | 1063.2 |
| 20260509201107 | 54 | 45 | 7.0 | 0.0 | 0.00 | 0.00 | 0.00 | 74 | 1063.2 |
| 20260509201002 | 54 | 22 | 4.0 | 0.0 | 0.00 | 0.00 | 0.00 | 74 | 1063.2 |
| 20260509200857 | 54 | 67 | 5.0 | 0.0 | 0.00 | 0.00 | 0.00 | 74 | 1063.2 |
| 20260509200750 | 54 | 90 | 2.0 | 0.0 | 0.00 | 0.00 | 0.00 | 74 | 1063.2 |
| 20260509200620 | 54 | 112 | 6.0 | 0.0 | 0.00 | 0.00 | 0.00 | 74 | 1063.2 |
| 20260509200459 | 54 | 67 | 4.0 | 0.0 | 0.00 | 0.00 | 0.00 | 74 | 1063.2 |
| 20260509200349 | 54 | 45 | 5.0 | 0.0 | 0.00 | 0.00 | 0.00 | 74 | 1063.2 |
| 20260509200242 | 54 | 67 | 3.0 | 0.0 | 0.00 | 0.00 | 0.00 | 74 | 1063.2 |
| 20260509200136 | 54 | 45 | 0.0 | 0.0 | 0.00 | 0.00 | 0.00 | 74 | 1063.1 |
| 20260509200007 | 54 | 67 | 3.0 | 0.0 | 0.00 | 0.00 | 0.00 | 74 | 1063.2 |
| 20260509195854 | 54 | 67 | 6.0 | 0.0 | 0.00 | 0.00 | 0.00 | 74 | 1063.1 |
| 20260509195750 | 54 | 45 | 3.0 | 0.0 | 0.00 | 0.00 | 0.00 | 74 | 1063.1 |
| 20260509195644 | 54 | 90 | 0.0 | 0.0 | 0.00 | 0.00 | 0.00 | 73 | 1063.1 |
| 20260509195539 | 54 | 67 | 1.0 | 0.0 | 0.00 | 0.00 | 0.00 | 73 | 1063.1 |
| 20260509195420 | 54 | 45 | 4.0 | 0.0 | 0.00 | 0.00 | 0.00 | 73 | 1063.1 |
| 20260509195306 | 54 | 45 | 3.0 | 0.0 | 0.00 | 0.00 | 0.00 | 73 | 1063.1 |
| 20260509195151 | 54 | 90 | 3.0 | 0.0 | 0.00 | 0.00 | 0.00 | 73 | 1063.1 |
| 20260509195022 | 54 | 90 | 3.0 | 0.0 | 0.00 | 0.00 | 0.00 | 73 | 1063.2 |
| 20260509194855 | 54 | 22 | 6.0 | 0.0 | 0.00 | 0.00 | 0.00 | 73 | 1063.3 |
| 20260509194740 | 54 | 45 | 5.0 | 0.0 | 0.00 | 0.00 | 0.00 | 73 | 1063.3 |
| 20260509194618 | 54 | 45 | 6.0 | 0.0 | 0.00 | 0.00 | 0.00 | 73 | 1063.4 |
| 20260509194505 | 54 | 67 | 2.0 | 0.0 | 0.00 | 0.00 | 0.00 | 73 | 1063.3 |
| 20260509194343 | 54 | 45 | 6.0 | 0.0 | 0.00 | 0.00 | 0.00 | 73 | 1063.3 |
| 20260509194231 | 54 | 67 | 1.0 | 0.0 | 0.00 | 0.00 | 0.00 | 73 | 1063.4 |
| 20260509194111 | 54 | 67 | 6.0 | 0.0 | 0.00 | 0.00 | 0.00 | 73 | 1063.2 |
| 20260509194005 | 54 | 67 | 2.0 | 0.0 | 0.00 | 0.00 | 0.00 | 72 | 1063.3 |
| 20260509193852 | 54 | 45 | 4.0 | 0.0 | 0.00 | 0.00 | 0.00 | 72 | 1063.3 |
| 20260509193732 | 54 | 45 | 4.0 | 0.0 | 0.00 | 0.00 | 0.00 | 72 | 1063.3 |
| 20260509193625 | 54 | 45 | 6.0 | 0.0 | 0.00 | 0.00 | 0.00 | 72 | 1063.2 |
| 20260509193503 | 54 | 45 | 5.0 | 0.0 | 0.00 | 0.00 | 0.00 | 72 | 1063.2 |
| 20260509193343 | 54 | 45 | 0.0 | 0.0 | 0.00 | 0.00 | 0.00 | 72 | 1063.2 |
| 20260509193223 | 54 | 45 | 5.0 | 0.0 | 0.00 | 0.00 | 0.00 | 72 | 1063.2 |
| 20260509193117 | 54 | 45 | 4.0 | 0.0 | 0.00 | 0.00 | 0.00 | 72 | 1063.2 |
| 20260509193003 | 54 | 45 | 3.0 | 0.0 | 0.00 | 0.00 | 0.00 | 71 | 1063.2 |
| 20260509192845 | 54 | 67 | 0.0 | 0.0 | 0.00 | 0.00 | 0.00 | 71 | 1063.2 |
| 20260509192737 | 54 | 90 | 3.0 | 0.0 | 0.00 | 0.00 | 0.00 | 71 | 1063.3 |
| 20260509192624 | 54 | 45 | 3.0 | 0.0 | 0.00 | 0.00 | 0.00 | 71 | 1063.3 |
| 20260509192519 | 54 | 45 | 5.0 | 0.0 | 0.00 | 0.00 | 0.00 | 71 | 1063.2 |
| 20260509192405 | 54 | 45 | 7.0 | 0.0 | 0.00 | 0.00 | 0.00 | 71 | 1063.2 |
| 20260509192255 | 55 | 90 | 6.0 | 0.0 | 0.00 | 0.00 | 0.00 | 71 | 1063.2 |
| 20260509192142 | 55 | 45 | 4.0 | 0.0 | 0.00 | 0.00 | 0.00 | 71 | 1063.2 |
| 20260509192034 | 55 | 45 | 1.0 | 0.0 | 0.00 | 0.00 | 0.00 | 71 | 1063.2 |
| 20260509191913 | 55 | 45 | 4.0 | 0.0 | 0.00 | 0.00 | 0.00 | 71 | 1063.2 |
| 20260509191752 | 55 | 45 | 7.0 | 0.0 | 0.00 | 0.00 | 0.00 | 71 | 1063.2 |
| 20260509191638 | 55 | 45 | 4.0 | 0.0 | 0.00 | 0.00 | 0.00 | 71 | 1063.2 |
| 20260509191518 | 55 | 22 | 5.0 | 0.0 | 0.00 | 0.00 | 0.00 | 71 | 1063.1 |
| 20260509191407 | 55 | 45 | 4.0 | 0.0 | 0.00 | 0.00 | 0.00 | 71 | 1063.2 |
| 20260509191300 | 55 | 67 | 9.0 | 0.0 | 0.00 | 0.00 | 0.00 | 71 | 1063.1 |
| 20260509191147 | 55 | 45 | 7.0 | 0.0 | 0.00 | 0.00 | 0.00 | 71 | 1063.1 |
| 20260509191042 | 55 | 45 | 8.0 | 0.0 | 0.00 | 0.00 | 0.00 | 71 | 1063.1 |
| 20260509190930 | 55 | 22 | 3.0 | 0.0 | 0.00 | 0.00 | 0.00 | 71 | 1063.0 |
| 20260509190823 | 55 | 45 | 7.0 | 0.0 | 0.00 | 0.00 | 0.00 | 70 | 1063.1 |
| 20260509190713 | 55 | 22 | 2.0 | 0.0 | 0.00 | 0.00 | 0.00 | 70 | 1063.1 |
| 20260509190605 | 55 | 22 | 4.0 | 0.0 | 0.00 | 0.00 | 0.00 | 70 | 1063.0 |
| 20260509190445 | 55 | 45 | 5.0 | 0.0 | 0.00 | 0.00 | 0.00 | 70 | 1063.1 |
| 20260509190333 | 55 | 22 | 4.0 | 0.0 | 0.00 | 0.00 | 0.00 | 70 | 1063.0 |
| 20260509190226 | 55 | 22 | 1.0 | 0.0 | 0.00 | 0.00 | 0.00 | 69 | 1063.0 |
| 20260509190105 | 55 | 45 | 3.0 | 0.0 | 0.00 | 0.00 | 0.00 | 69 | 1063.0 |
| 20260509185952 | 55 | 67 | 6.0 | 0.0 | 0.00 | 0.00 | 0.00 | 69 | 1063.0 |
| 20260509185846 | 55 | 45 | 6.0 | 0.0 | 0.00 | 0.00 | 0.00 | 69 | 1063.0 |
| 20260509185725 | 55 | 112 | 0.0 | 0.0 | 0.00 | 0.00 | 0.00 | 69 | 1062.9 |
| 20260509185613 | 55 | 90 | 7.0 | 0.0 | 0.00 | 0.00 | 0.00 | 69 | 1063.0 |
| 20260509185506 | 55 | 22 | 6.0 | 0.0 | 0.00 | 0.00 | 0.00 | 69 | 1063.0 |
| 20260509185355 | 55 | 67 | 3.0 | 0.0 | 0.00 | 0.00 | 0.00 | 69 | 1063.0 |
| 20260509185249 | 55 | 67 | 2.0 | 0.0 | 0.00 | 0.00 | 0.00 | 69 | 1062.9 |
| 20260509185144 | 55 | 45 | 2.0 | 0.0 | 0.00 | 0.00 | 0.00 | 69 | 1062.9 |
| 20260509185031 | 55 | 45 | 0.0 | 0.0 | 0.00 | 0.00 | 0.00 | 69 | 1062.9 |
| 20260509184909 | 55 | 45 | 2.0 | 0.0 | 0.00 | 0.00 | 0.00 | 69 | 1062.9 |
| 20260509184748 | 55 | 45 | 4.0 | 0.0 | 0.00 | 0.00 | 0.00 | 69 | 1062.9 |
| 20260509184627 | 55 | 45 | 5.0 | 0.0 | 0.00 | 0.00 | 0.00 | 69 | 1063.0 |
| 20260509184514 | 55 | 45 | 5.0 | 0.0 | 0.00 | 0.00 | 0.00 | 69 | 1062.9 |
| 20260509184401 | 55 | 45 | 6.0 | 0.0 | 0.00 | 0.00 | 0.00 | 69 | 1062.9 |
| 20260509184258 | 55 | 45 | 6.0 | 0.0 | 0.00 | 0.00 | 0.00 | 69 | 1063.0 |
| 20260509184150 | 55 | 22 | 6.0 | 0.0 | 0.00 | 0.00 | 0.00 | 68 | 1063.1 |
| 20260509184029 | 55 | 45 | 6.0 | 0.0 | 0.00 | 0.00 | 0.00 | 68 | 1063.0 |
| 20260509183916 | 56 | 45 | 0.0 | 0.0 | 0.00 | 0.00 | 0.00 | 68 | 1062.9 |
| 20260509183757 | 56 | 90 | 5.0 | 0.0 | 0.00 | 0.00 | 0.00 | 68 | 1063.0 |
| 20260509183651 | 56 | 45 | 6.0 | 0.0 | 0.00 | 0.00 | 0.00 | 68 | 1062.9 |
| 20260509183537 | 56 | 45 | 7.0 | 0.0 | 0.00 | 0.00 | 0.00 | 68 | 1062.8 |
| 20260509183424 | 56 | 45 | 7.0 | 0.0 | 0.00 | 0.00 | 0.00 | 67 | 1062.9 |
| 20260509183310 | 56 | 45 | 2.0 | 0.0 | 0.00 | 0.00 | 0.00 | 67 | 1062.8 |
| 20260509183150 | 56 | 67 | 5.0 | 0.0 | 0.00 | 0.00 | 0.00 | 67 | 1062.8 |
| 20260509183037 | 56 | 67 | 0.0 | 0.0 | 0.00 | 0.00 | 0.00 | 67 | 1062.9 |
| 20260509182932 | 56 | 45 | 10.0 | 0.0 | 0.00 | 0.00 | 0.00 | 67 | 1062.8 |
| 20260509182821 | 56 | 45 | 2.0 | 0.0 | 0.00 | 0.00 | 0.00 | 66 | 1062.9 |
| 20260509182713 | 56 | 45 | 5.0 | 0.0 | 0.00 | 0.00 | 0.00 | 66 | 1062.9 |
| 20260509182555 | 56 | 22 | 5.0 | 0.0 | 0.00 | 0.00 | 0.00 | 66 | 1062.9 |
| 20260509182448 | 56 | 45 | 3.0 | 0.0 | 0.00 | 0.00 | 0.00 | 66 | 1062.8 |
| 20260509182345 | 56 | 67 | 6.0 | 0.0 | 0.00 | 0.00 | 0.00 | 66 | 1062.9 |
| 20260509182237 | 57 | 67 | 0.0 | 0.0 | 0.00 | 0.00 | 0.00 | 66 | 1062.9 |
| 20260509182124 | 57 | 67 | 1.0 | 0.0 | 0.00 | 0.00 | 0.00 | 65 | 1062.9 |
| 20260509182018 | 57 | 67 | 5.0 | 0.0 | 0.00 | 0.00 | 0.00 | 65 | 1062.8 |
| 20260509181906 | 57 | 90 | 2.0 | 0.0 | 0.00 | 0.00 | 0.00 | 65 | 1062.9 |
| 20260509181753 | 57 | 112 | 2.0 | 0.0 | 0.00 | 0.00 | 0.00 | 65 | 1062.8 |
| 20260509181640 | 57 | 45 | 6.0 | 0.0 | 0.00 | 0.00 | 0.00 | 64 | 1063.0 |
| 20260509181537 | 57 | 67 | 8.0 | 0.0 | 0.00 | 0.00 | 0.00 | 64 | 1062.9 |
| 20260509181431 | 57 | 45 | 0.0 | 0.0 | 0.00 | 0.00 | 0.00 | 64 | 1063.0 |
| 20260509181324 | 57 | 67 | 5.0 | 0.0 | 0.00 | 0.00 | 0.00 | 64 | 1062.9 |
| 20260509181210 | 57 | 90 | 3.0 | 0.0 | 0.00 | 0.00 | 0.00 | 63 | 1062.9 |
| 20260509181105 | 57 | 45 | 2.0 | 0.0 | 0.00 | 0.00 | 0.00 | 64 | 1062.9 |
| 20260509180959 | 57 | 90 | 5.0 | 0.0 | 0.00 | 0.00 | 0.00 | 63 | 1062.8 |
| 20260509180853 | 57 | 45 | 3.0 | 0.0 | 0.00 | 0.00 | 0.00 | 63 | 1062.9 |
| 20260509180747 | 57 | 67 | 6.0 | 0.0 | 0.00 | 0.00 | 0.00 | 63 | 1062.9 |
| 20260509180634 | 57 | 67 | 3.0 | 0.0 | 0.00 | 0.00 | 0.00 | 63 | 1062.9 |
| 20260509180521 | 57 | 45 | 6.0 | 0.0 | 0.00 | 0.00 | 0.00 | 63 | 1062.9 |
| 20260509180408 | 57 | 67 | 6.0 | 0.0 | 0.00 | 0.00 | 0.00 | 63 | 1062.8 |
| 20260509180255 | 57 | 90 | 8.0 | 0.0 | 0.00 | 0.00 | 0.00 | 63 | 1062.8 |
| 20260509180143 | 57 | 45 | 3.0 | 0.0 | 0.00 | 0.00 | 0.00 | 63 | 1062.8 |
| 20260509180035 | 57 | 112 | 8.0 | 0.0 | 0.00 | 0.00 | 0.00 | 63 | 1062.8 |
| 20260509175922 | 57 | 90 | 9.0 | 0.0 | 0.00 | 0.00 | 0.00 | 63 | 1062.8 |
| 20260509175811 | 57 | 90 | 6.0 | 0.0 | 0.00 | 0.00 | 0.00 | 63 | 1062.8 |
| 20260509175706 | 57 | 22 | 7.0 | 0.0 | 0.00 | 0.00 | 0.00 | 63 | 1062.8 |
| 20260509175559 | 57 | 90 | 7.0 | 0.0 | 0.00 | 0.00 | 0.00 | 63 | 1062.8 |
| 20260509175438 | 57 | 112 | 5.0 | 0.0 | 0.00 | 0.00 | 0.00 | 62 | 1062.9 |
| 20260509175316 | 57 | 112 | 7.0 | 0.0 | 0.00 | 0.00 | 0.00 | 62 | 1062.8 |
| 20260509175204 | 57 | 67 | 7.0 | 0.0 | 0.00 | 0.00 | 0.00 | 62 | 1062.8 |
| 20260509175050 | 57 | 90 | 3.0 | 0.0 | 0.00 | 0.00 | 0.00 | 62 | 1062.8 |
| 20260509174922 | 58 | 67 | 9.0 | 0.0 | 0.00 | 0.00 | 0.00 | 62 | 1062.8 |
| 20260509174808 | 58 | 67 | 3.0 | 0.0 | 0.00 | 0.00 | 0.00 | 62 | 1062.8 |
| 20260509174646 | 58 | 45 | 3.0 | 0.0 | 0.00 | 0.00 | 0.00 | 61 | 1062.8 |
| 20260509174524 | 58 | 112 | 8.0 | 0.0 | 0.00 | 0.00 | 0.00 | 61 | 1062.8 |
| 20260509174404 | 58 | 90 | 10.0 | 0.0 | 0.00 | 0.00 | 0.00 | 61 | 1062.7 |
| 20260509174251 | 58 | 90 | 6.0 | 0.0 | 0.00 | 0.00 | 0.00 | 61 | 1062.7 |
| 20260509174129 | 58 | 90 | 7.0 | 0.0 | 0.00 | 0.00 | 0.00 | 61 | 1062.7 |
| 20260509174017 | 58 | 22 | 6.0 | 0.0 | 0.00 | 0.00 | 0.00 | 60 | 1062.7 |
| 20260509173903 | 58 | 90 | 9.0 | 0.0 | 0.00 | 0.00 | 0.00 | 60 | 1062.6 |
| 20260509173750 | 58 | 90 | 8.0 | 0.0 | 0.00 | 0.00 | 0.00 | 60 | 1062.8 |
| 20260509173630 | 59 | 90 | 7.0 | 0.0 | 0.00 | 0.00 | 0.00 | 60 | 1062.7 |
| 20260509173525 | 59 | 67 | 7.0 | 0.0 | 0.00 | 0.00 | 0.00 | 60 | 1062.7 |
| 20260509173412 | 59 | 67 | 3.0 | 0.0 | 0.00 | 0.00 | 0.00 | 59 | 1062.7 |
| 20260509173258 | 59 | 67 | 6.0 | 0.0 | 0.00 | 0.00 | 0.00 | 59 | 1062.7 |
| 20260509173139 | 59 | 45 | 3.0 | 0.0 | 0.00 | 0.00 | 0.00 | 58 | 1062.7 |
| 20260509173034 | 59 | 67 | 6.0 | 0.0 | 0.00 | 0.00 | 0.00 | 59 | 1062.7 |
| 20260509172929 | 60 | 90 | 4.0 | 0.0 | 0.00 | 0.00 | 0.00 | 58 | 1062.7 |
| 20260509172822 | 60 | 45 | 4.0 | 0.0 | 0.00 | 0.00 | 0.00 | 58 | 1062.6 |
| 20260509172656 | 60 | 67 | 3.0 | 0.0 | 0.00 | 0.00 | 0.00 | 58 | 1062.6 |
| 20260509172548 | 60 | 90 | 12.0 | 0.0 | 0.00 | 0.00 | 0.00 | 58 | 1062.6 |
| 20260509172435 | 60 | 112 | 16.0 | 0.0 | 0.00 | 0.00 | 0.00 | 58 | 1062.6 |
| 20260509172322 | 60 | 90 | 12.0 | 0.0 | 0.00 | 0.00 | 0.00 | 57 | 1062.7 |
| 20260509172216 | 60 | 45 | 8.0 | 0.0 | 0.00 | 0.00 | 0.00 | 57 | 1062.7 |
| 20260509172057 | 60 | 90 | 3.0 | 0.0 | 0.00 | 0.00 | 0.00 | 57 | 1062.7 |
| 20260509171953 | 60 | 45 | 7.0 | 0.0 | 0.00 | 0.00 | 0.00 | 57 | 1062.6 |
| 20260509171844 | 60 | 67 | 7.0 | 0.0 | 0.00 | 0.00 | 0.00 | 57 | 1062.7 |
| 20260509171725 | 60 | 67 | 8.0 | 0.0 | 0.00 | 0.00 | 0.00 | 58 | 1062.7 |
| 20260509171619 | 60 | 67 | 6.0 | 0.0 | 0.00 | 0.00 | 0.00 | 58 | 1062.7 |
| 20260509171514 | 59 | 90 | 5.0 | 0.0 | 0.00 | 0.00 | 0.00 | 58 | 1062.7 |
| 20260509171400 | 59 | 112 | 6.0 | 0.0 | 0.00 | 0.00 | 0.00 | 58 | 1062.7 |
| 20260509171246 | 59 | 112 | 7.0 | 0.0 | 0.00 | 0.00 | 0.00 | 58 | 1062.7 |
| 20260509171134 | 59 | 67 | 11.0 | 0.0 | 0.00 | 0.00 | 0.00 | 58 | 1062.7 |
| 20260509171027 | 59 | 90 | 3.0 | 0.0 | 0.00 | 0.00 | 0.00 | 58 | 1062.6 |
| 20260509170912 | 59 | 45 | 9.0 | 0.0 | 0.00 | 0.00 | 0.00 | 58 | 1062.6 |
| 20260509170752 | 59 | 45 | 4.0 | 0.0 | 0.00 | 0.00 | 0.00 | 58 | 1062.6 |
| 20260509170623 | 59 | 67 | 6.0 | 0.0 | 0.00 | 0.00 | 0.00 | 58 | 1062.6 |
| 20260509170509 | 59 | 67 | 4.0 | 0.0 | 0.00 | 0.00 | 0.00 | 57 | 1062.6 |
| 20260509170349 | 59 | 90 | 7.0 | 0.0 | 0.00 | 0.00 | 0.00 | 58 | 1062.6 |
| 20260509170235 | 59 | 67 | 5.0 | 0.0 | 0.00 | 0.00 | 0.00 | 57 | 1062.6 |
| 20260509170114 | 59 | 22 | 7.0 | 0.0 | 0.00 | 0.00 | 0.00 | 57 | 1062.6 |
| 20260509165953 | 59 | 90 | 8.0 | 0.0 | 0.00 | 0.00 | 0.00 | 57 | 1062.7 |
| 20260509165841 | 59 | 45 | 8.0 | 0.0 | 0.00 | 0.00 | 0.00 | 57 | 1062.7 |
| 20260509165727 | 59 | 112 | 7.0 | 0.0 | 0.00 | 0.00 | 0.00 | 57 | 1062.7 |
| 20260509165615 | 59 | 45 | 5.0 | 0.0 | 0.00 | 0.00 | 0.00 | 57 | 1062.7 |
| 20260509165510 | 59 | 45 | 5.0 | 0.0 | 0.00 | 0.00 | 0.00 | 57 | 1062.7 |
| 20260509165403 | 59 | 22 | 8.0 | 0.0 | 0.00 | 0.00 | 0.00 | 57 | 1062.7 |
| 20260509165243 | 59 | 45 | 5.0 | 0.0 | 0.00 | 0.00 | 0.00 | 57 | 1062.7 |
| 20260509165130 | 59 | 45 | 3.0 | 0.0 | 0.00 | 0.00 | 0.00 | 56 | 1062.6 |
| 20260509165017 | 59 | 67 | 6.0 | 0.0 | 0.00 | 0.00 | 0.00 | 56 | 1062.6 |
| 20260509164912 | 59 | 45 | 7.0 | 0.0 | 0.00 | 0.00 | 0.00 | 56 | 1062.6 |
| 20260509164752 | 59 | 90 | 9.0 | 0.0 | 0.00 | 0.00 | 0.00 | 56 | 1062.8 |
| 20260509164637 | 59 | 67 | 14.0 | 0.0 | 0.00 | 0.00 | 0.00 | 56 | 1062.8 |
| 20260509164524 | 59 | 45 | 4.0 | 0.0 | 0.00 | 0.00 | 0.00 | 55 | 1062.8 |
| 20260509164419 | 59 | 45 | 10.0 | 0.0 | 0.00 | 0.00 | 0.00 | 56 | 1062.8 |
| 20260509164258 | 59 | 90 | 6.0 | 0.0 | 0.00 | 0.00 | 0.00 | 56 | 1062.8 |
| 20260509164145 | 59 | 90 | 10.0 | 0.0 | 0.00 | 0.00 | 0.00 | 55 | 1062.9 |
| 20260509164032 | 59 | 90 | 10.0 | 0.0 | 0.00 | 0.00 | 0.00 | 55 | 1062.9 |
| 20260509163926 | 60 | 90 | 9.0 | 0.0 | 0.00 | 0.00 | 0.00 | 54 | 1062.9 |
| 20260509163814 | 60 | 90 | 12.0 | 0.0 | 0.00 | 0.00 | 0.00 | 54 | 1062.8 |
| 20260509163652 | 60 | 90 | 7.0 | 0.0 | 0.00 | 0.00 | 0.00 | 53 | 1062.8 |
| 20260509163539 | 60 | 90 | 13.0 | 0.0 | 0.00 | 0.00 | 0.00 | 53 | 1062.7 |
| 20260509163412 | 60 | 67 | 9.0 | 0.0 | 0.00 | 0.00 | 0.00 | 53 | 1062.7 |
| 20260509163305 | 60 | 90 | 10.0 | 0.0 | 0.00 | 0.00 | 0.00 | 53 | 1062.7 |
| 20260509163200 | 60 | 67 | 6.0 | 0.0 | 0.00 | 0.00 | 0.00 | 53 | 1062.7 |
| 20260509163047 | 60 | 22 | 4.0 | 0.0 | 0.00 | 0.00 | 0.00 | 53 | 1062.7 |
| 20260509162942 | 60 | 112 | 8.0 | 0.0 | 0.00 | 0.00 | 0.00 | 53 | 1062.8 |
| 20260509162829 | 60 | 67 | 4.0 | 0.0 | 0.00 | 0.00 | 0.00 | 54 | 1062.8 |
| 20260509162724 | 60 | 67 | 4.0 | 0.0 | 0.00 | 0.00 | 0.00 | 54 | 1062.8 |
| 20260509162610 | 60 | 67 | 9.0 | 0.0 | 0.00 | 0.00 | 0.00 | 54 | 1062.8 |
| 20260509162449 | 60 | 67 | 2.0 | 0.0 | 0.00 | 0.00 | 0.00 | 54 | 1062.9 |
| 20260509162344 | 60 | 112 | 11.0 | 0.0 | 0.00 | 0.00 | 0.00 | 54 | 1062.9 |
| 20260509162233 | 60 | 112 | 10.0 | 0.0 | 0.00 | 0.00 | 0.00 | 54 | 1062.9 |
| 20260509162126 | 60 | 90 | 8.0 | 0.0 | 0.00 | 0.00 | 0.00 | 55 | 1063.0 |
| 20260509162004 | 60 | 90 | 7.0 | 0.0 | 0.00 | 0.00 | 0.00 | 55 | 1062.9 |
| 20260509161843 | 60 | 112 | 8.0 | 0.0 | 0.00 | 0.00 | 0.00 | 56 | 1063.0 |
| 20260509161725 | 60 | 67 | 4.0 | 0.0 | 0.00 | 0.00 | 0.00 | 56 | 1062.9 |
| 20260509161603 | 60 | 90 | 3.0 | 0.0 | 0.00 | 0.00 | 0.00 | 56 | 1063.0 |
| 20260509161433 | 60 | 90 | 7.0 | 0.0 | 0.00 | 0.00 | 0.00 | 55 | 1063.1 |
| 20260509161305 | 60 | 67 | 4.0 | 0.0 | 0.00 | 0.00 | 0.00 | 55 | 1063.1 |
| 20260509161149 | 60 | 45 | 8.0 | 0.0 | 0.00 | 0.00 | 0.00 | 54 | 1063.0 |
| 20260509161044 | 60 | 67 | 11.0 | 0.0 | 0.00 | 0.00 | 0.00 | 55 | 1063.1 |
| 20260509160915 | 60 | 112 | 6.0 | 0.0 | 0.00 | 0.00 | 0.00 | 55 | 1063.0 |
| 20260509160753 | 60 | 67 | 13.0 | 0.0 | 0.00 | 0.00 | 0.00 | 55 | 1063.0 |
| 20260509160641 | 60 | 90 | 7.0 | 0.0 | 0.00 | 0.00 | 0.00 | 55 | 1063.0 |
| 20260509160528 | 60 | 67 | 9.0 | 0.0 | 0.00 | 0.00 | 0.00 | 56 | 1063.1 |
| 20260509160414 | 60 | 67 | 9.0 | 0.0 | 0.00 | 0.00 | 0.00 | 56 | 1063.1 |
| 20260509160247 | 60 | 45 | 11.0 | 0.0 | 0.00 | 0.00 | 0.00 | 56 | 1063.1 |
| 20260509160139 | 60 | 112 | 9.0 | 0.0 | 0.00 | 0.00 | 0.00 | 57 | 1063.1 |
| 20260509160027 | 60 | 67 | 9.0 | 0.0 | 0.00 | 0.00 | 0.00 | 57 | 1063.1 |
| 20260509155921 | 60 | 67 | 6.0 | 0.0 | 0.00 | 0.00 | 0.00 | 57 | 1063.1 |
| 20260509155815 | 60 | 22 | 3.0 | 0.0 | 0.00 | 0.00 | 0.00 | 57 | 1063.2 |
| 20260509155701 | 60 | 112 | 4.0 | 0.0 | 0.00 | 0.00 | 0.00 | 57 | 1063.2 |
| 20260509155540 | 60 | 112 | 6.0 | 0.0 | 0.00 | 0.00 | 0.00 | 57 | 1063.2 |
| 20260509155434 | 60 | 112 | 5.0 | 0.0 | 0.00 | 0.00 | 0.00 | 57 | 1063.1 |
| 20260509155313 | 60 | 45 | 8.0 | 0.0 | 0.00 | 0.00 | 0.00 | 57 | 1062.9 |
| 20260509155152 | 60 | 90 | 6.0 | 0.0 | 0.00 | 0.00 | 0.00 | 57 | 1063.2 |
| 20260509155038 | 60 | 45 | 10.0 | 0.0 | 0.00 | 0.00 | 0.00 | 57 | 1063.2 |
| 20260509154911 | 60 | 45 | 7.0 | 0.0 | 0.00 | 0.00 | 0.00 | 56 | 1063.2 |
| 20260509154806 | 60 | 22 | 7.0 | 0.0 | 0.00 | 0.00 | 0.00 | 56 | 1063.2 |
| 20260509154701 | 60 | 67 | 10.0 | 0.0 | 0.00 | 0.00 | 0.00 | 56 | 1063.2 |
| 20260509154555 | 61 | 67 | 11.0 | 0.0 | 0.00 | 0.00 | 0.00 | 56 | 1063.2 |
| 20260509154441 | 61 | 22 | 8.0 | 0.0 | 0.00 | 0.00 | 0.00 | 57 | 1063.2 |
| 20260509154321 | 61 | 67 | 7.0 | 0.0 | 0.00 | 0.00 | 0.00 | 56 | 1063.3 |
| 20260509154215 | 61 | 45 | 14.0 | 0.0 | 0.00 | 0.00 | 0.00 | 57 | 1063.3 |
| 20260509154104 | 61 | 22 | 4.0 | 0.0 | 0.00 | 0.00 | 0.00 | 56 | 1063.3 |
| 20260509153957 | 62 | 90 | 7.0 | 0.0 | 0.00 | 0.00 | 0.00 | 56 | 1063.3 |
| 20260509153835 | 62 | 45 | 6.0 | 0.0 | 0.00 | 0.00 | 0.00 | 56 | 1063.2 |
| 20260509153715 | 62 | 22 | 11.0 | 0.0 | 0.00 | 0.00 | 0.00 | 57 | 1063.2 |
| 20260509153545 | 62 | 45 | 6.0 | 0.0 | 0.00 | 0.00 | 0.00 | 57 | 1063.3 |
| 20260509153425 | 62 | 45 | 8.0 | 0.0 | 0.00 | 0.00 | 0.00 | 58 | 1063.2 |
| 20260509153256 | 61 | 45 | 3.0 | 0.0 | 0.00 | 0.00 | 0.00 | 58 | 1063.3 |
| 20260509153127 | 61 | 45 | 5.0 | 0.0 | 0.00 | 0.00 | 0.00 | 58 | 1063.3 |
| 20260509153014 | 61 | 90 | 5.0 | 0.0 | 0.00 | 0.00 | 0.00 | 58 | 1063.4 |
| 20260509152850 | 61 | 45 | 0.0 | 0.0 | 0.00 | 0.00 | 0.00 | 58 | 1063.4 |
| 20260509152729 | 61 | 45 | 10.0 | 0.0 | 0.00 | 0.00 | 0.00 | 58 | 1063.4 |
| 20260509152616 | 61 | 67 | 7.0 | 0.0 | 0.00 | 0.00 | 0.00 | 58 | 1063.4 |
| 20260509152455 | 61 | 45 | 4.0 | 0.0 | 0.00 | 0.00 | 0.00 | 58 | 1063.4 |
| 20260509152342 | 61 | 45 | 7.0 | 0.0 | 0.00 | 0.00 | 0.00 | 58 | 1063.4 |
| 20260509152239 | 61 | 67 | 8.0 | 0.0 | 0.00 | 0.00 | 0.00 | 57 | 1063.4 |
| 20260509152132 | 61 | 67 | 6.0 | 0.0 | 0.00 | 0.00 | 0.00 | 57 | 1063.4 |
| 20260509152019 | 61 | 22 | 9.0 | 0.0 | 0.00 | 0.00 | 0.00 | 57 | 1063.4 |
| 20260509151857 | 61 | 45 | 7.0 | 0.0 | 0.00 | 0.00 | 0.00 | 56 | 1063.3 |
| 20260509151746 | 62 | 90 | 11.0 | 0.0 | 0.00 | 0.00 | 0.00 | 56 | 1063.3 |
| 20260509151639 | 62 | 67 | 12.0 | 0.0 | 0.00 | 0.00 | 0.00 | 56 | 1063.3 |
| 20260509151526 | 62 | 22 | 7.0 | 0.0 | 0.00 | 0.00 | 0.00 | 55 | 1063.4 |
| 20260509151421 | 62 | 90 | 5.0 | 0.0 | 0.00 | 0.00 | 0.00 | 55 | 1063.4 |
| 20260509151302 | 62 | 112 | 13.0 | 0.0 | 0.00 | 0.00 | 0.00 | 55 | 1063.4 |
| 20260509151147 | 62 | 112 | 9.0 | 0.0 | 0.00 | 0.00 | 0.00 | 55 | 1063.4 |
| 20260509151025 | 62 | 90 | 10.0 | 0.0 | 0.00 | 0.00 | 0.00 | 55 | 1063.5 |
| 20260509150905 | 62 | 22 | 4.0 | 0.0 | 0.00 | 0.00 | 0.00 | 56 | 1063.5 |
| 20260509150800 | 63 | 90 | 6.0 | 0.0 | 0.00 | 0.00 | 0.00 | 55 | 1063.5 |
| 20260509150647 | 63 | 67 | 10.0 | 0.0 | 0.00 | 0.00 | 0.00 | 55 | 1063.6 |
| 20260509150535 | 63 | 112 | 9.0 | 0.0 | 0.00 | 0.00 | 0.00 | 55 | 1063.6 |
| 20260509150422 | 63 | 67 | 11.0 | 0.0 | 0.00 | 0.00 | 0.00 | 56 | 1063.6 |
| 20260509150307 | 63 | 112 | 5.0 | 0.0 | 0.00 | 0.00 | 0.00 | 56 | 1063.6 |
| 20260509150153 | 63 | 45 | 10.0 | 0.0 | 0.00 | 0.00 | 0.00 | 57 | 1063.7 |
| 20260509150032 | 63 | 67 | 4.0 | 0.0 | 0.00 | 0.00 | 0.00 | 57 | 1063.7 |
| 20260509145927 | 63 | 0 | 7.0 | 0.0 | 0.00 | 0.00 | 0.00 | 57 | 1063.7 |
| 20260509145813 | 62 | 112 | 12.0 | 0.0 | 0.00 | 0.00 | 0.00 | 57 | 1063.7 |
| 20260509145700 | 62 | 315 | 6.0 | 0.0 | 0.00 | 0.00 | 0.00 | 57 | 1063.5 |
| 20260509145538 | 62 | 45 | 5.0 | 0.0 | 0.00 | 0.00 | 0.00 | 58 | 1063.7 |
| 20260509145418 | 62 | 45 | 5.0 | 0.0 | 0.00 | 0.00 | 0.00 | 58 | 1063.7 |
| 20260509145306 | 62 | 45 | 4.0 | 0.0 | 0.00 | 0.00 | 0.00 | 57 | 1063.7 |
| 20260509145143 | 62 | 90 | 8.0 | 0.0 | 0.00 | 0.00 | 0.00 | 57 | 1063.7 |
| 20260509145032 | 62 | 22 | 4.0 | 0.0 | 0.00 | 0.00 | 0.00 | 57 | 1063.7 |
| 20260509144925 | 62 | 45 | 7.0 | 0.0 | 0.00 | 0.00 | 0.00 | 58 | 1063.8 |
| 20260509144820 | 62 | 112 | 6.0 | 0.0 | 0.00 | 0.00 | 0.00 | 58 | 1063.7 |
| 20260509144716 | 62 | 112 | 10.0 | 0.0 | 0.00 | 0.00 | 0.00 | 58 | 1063.7 |
| 20260509144601 | 62 | 45 | 5.0 | 0.0 | 0.00 | 0.00 | 0.00 | 58 | 1063.8 |
| 20260509144449 | 61 | 67 | 2.0 | 0.0 | 0.00 | 0.00 | 0.00 | 58 | 1063.7 |
| 20260509144336 | 61 | 90 | 6.0 | 0.0 | 0.00 | 0.00 | 0.00 | 58 | 1063.8 |
| 20260509144223 | 61 | 112 | 4.0 | 0.0 | 0.00 | 0.00 | 0.00 | 58 | 1063.7 |
| 20260509144111 | 61 | 67 | 11.0 | 0.0 | 0.00 | 0.00 | 0.00 | 59 | 1063.8 |
| 20260509143956 | 61 | 90 | 6.0 | 0.0 | 0.00 | 0.00 | 0.00 | 59 | 1063.8 |
| 20260509143834 | 61 | 90 | 4.0 | 0.0 | 0.00 | 0.00 | 0.00 | 59 | 1063.8 |
| 20260509143716 | 61 | 45 | 10.0 | 0.0 | 0.00 | 0.00 | 0.00 | 59 | 1063.8 |
| 20260509143609 | 61 | 0 | 3.0 | 0.0 | 0.00 | 0.00 | 0.00 | 59 | 1063.8 |
| 20260509143504 | 61 | 90 | 7.0 | 0.0 | 0.00 | 0.00 | 0.00 | 59 | 1063.8 |
| 20260509143351 | 60 | 67 | 6.0 | 0.0 | 0.00 | 0.00 | 0.00 | 59 | 1063.8 |
| 20260509143238 | 60 | 45 | 10.0 | 0.0 | 0.00 | 0.00 | 0.00 | 59 | 1063.9 |
| 20260509143133 | 60 | 22 | 7.0 | 0.0 | 0.00 | 0.00 | 0.00 | 59 | 1063.9 |
| 20260509143028 | 60 | 45 | 4.0 | 0.0 | 0.00 | 0.00 | 0.00 | 59 | 1063.9 |
| 20260509142922 | 61 | 90 | 4.0 | 0.0 | 0.00 | 0.00 | 0.00 | 58 | 1063.9 |
| 20260509142809 | 61 | 22 | 11.0 | 0.0 | 0.00 | 0.00 | 0.00 | 58 | 1063.9 |
| 20260509142706 | 61 | 67 | 3.0 | 0.0 | 0.00 | 0.00 | 0.00 | 58 | 1064.0 |
| 20260509142558 | 61 | 45 | 11.0 | 0.0 | 0.00 | 0.00 | 0.00 | 57 | 1064.0 |
| 20260509142439 | 61 | 45 | 11.0 | 0.0 | 0.00 | 0.00 | 0.00 | 57 | 1064.0 |
| 20260509142333 | 61 | 112 | 8.0 | 0.0 | 0.00 | 0.00 | 0.00 | 57 | 1064.0 |
| 20260509142227 | 61 | 90 | 5.0 | 0.0 | 0.00 | 0.00 | 0.00 | 56 | 1064.1 |
| 20260509142114 | 61 | 67 | 4.0 | 0.0 | 0.00 | 0.00 | 0.00 | 56 | 1064.1 |
| 20260509142009 | 61 | 90 | 7.0 | 0.0 | 0.00 | 0.00 | 0.00 | 56 | 1064.0 |
| 20260509141854 | 62 | 90 | 6.0 | 0.0 | 0.00 | 0.00 | 0.00 | 56 | 1064.0 |
| 20260509141746 | 62 | 90 | 1.0 | 0.0 | 0.00 | 0.00 | 0.00 | 56 | 1064.0 |
| 20260509141638 | 62 | 90 | 7.0 | 0.0 | 0.00 | 0.00 | 0.00 | 55 | 1064.1 |
| 20260509141525 | 62 | 90 | 4.0 | 0.0 | 0.00 | 0.00 | 0.00 | 55 | 1064.1 |
| 20260509141420 | 62 | 67 | 4.0 | 0.0 | 0.00 | 0.00 | 0.00 | 54 | 1064.0 |
| 20260509141307 | 62 | 22 | 6.0 | 0.0 | 0.00 | 0.00 | 0.00 | 53 | 1064.0 |
| 20260509141202 | 62 | 45 | 4.0 | 0.0 | 0.00 | 0.00 | 0.00 | 51 | 1064.0 |
| 20260509141049 | 62 | 90 | 4.0 | 0.0 | 0.00 | 0.00 | 0.00 | 51 | 1064.0 |
| 20260509140938 | 62 | 135 | 2.0 | 0.0 | 0.00 | 0.00 | 0.00 | 51 | 1064.1 |
| 20260509140832 | 62 | 112 | 4.0 | 0.0 | 0.00 | 0.00 | 0.00 | 51 | 1064.1 |
| 20260509140727 | 62 | 135 | 6.0 | 0.0 | 0.00 | 0.00 | 0.00 | 51 | 1064.0 |
| 20260509140620 | 62 | 112 | 7.0 | 0.0 | 0.00 | 0.00 | 0.00 | 50 | 1064.0 |
| 20260509140500 | 62 | 135 | 6.0 | 0.0 | 0.00 | 0.00 | 0.00 | 50 | 1064.0 |
| 20260509140355 | 62 | 112 | 6.0 | 0.0 | 0.00 | 0.00 | 0.00 | 51 | 1064.1 |
| 20260509140235 | 62 | 112 | 5.0 | 0.0 | 0.00 | 0.00 | 0.00 | 51 | 1064.1 |
| 20260509140121 | 62 | 90 | 6.0 | 0.0 | 0.00 | 0.00 | 0.00 | 51 | 1064.1 |
| 20260509140009 | 62 | 112 | 6.0 | 0.0 | 0.00 | 0.00 | 0.00 | 51 | 1064.1 |
| 20260509135858 | 62 | 112 | 3.0 | 0.0 | 0.00 | 0.00 | 0.00 | 51 | 1064.1 |
| 20260509135752 | 62 | 135 | 1.0 | 0.0 | 0.00 | 0.00 | 0.00 | 50 | 1064.0 |
| 20260509135630 | 62 | 112 | 7.0 | 0.0 | 0.00 | 0.00 | 0.00 | 50 | 1064.0 |
| 20260509135510 | 62 | 112 | 3.0 | 0.0 | 0.00 | 0.00 | 0.00 | 50 | 1064.1 |
| 20260509135404 | 62 | 112 | 8.0 | 0.0 | 0.00 | 0.00 | 0.00 | 50 | 1064.0 |
| 20260509135250 | 63 | 112 | 4.0 | 0.0 | 0.00 | 0.00 | 0.00 | 49 | 1064.0 |
| 20260509135121 | 63 | 135 | 6.0 | 0.0 | 0.00 | 0.00 | 0.00 | 49 | 1064.0 |
| 20260509135008 | 63 | 157 | 10.0 | 0.0 | 0.00 | 0.00 | 0.00 | 49 | 1064.1 |
| 20260509134857 | 63 | 157 | 6.0 | 0.0 | 0.00 | 0.00 | 0.00 | 49 | 1064.0 |
| 20260509134751 | 63 | 157 | 6.0 | 0.0 | 0.00 | 0.00 | 0.00 | 48 | 1064.1 |
| 20260509134645 | 64 | 112 | 6.0 | 0.0 | 0.00 | 0.00 | 0.00 | 48 | 1064.1 |
| 20260509134532 | 64 | 180 | 6.0 | 0.0 | 0.00 | 0.00 | 0.00 | 48 | 1064.1 |
| 20260509134427 | 64 | 135 | 5.0 | 0.0 | 0.00 | 0.00 | 0.00 | 48 | 1064.2 |
| 20260509134313 | 64 | 112 | 7.0 | 0.0 | 0.00 | 0.00 | 0.00 | 48 | 1064.2 |
| 20260509134159 | 64 | 157 | 4.0 | 0.0 | 0.00 | 0.00 | 0.00 | 48 | 1064.2 |
| 20260509134047 | 64 | 180 | 7.0 | 0.0 | 0.00 | 0.00 | 0.00 | 48 | 1064.1 |
| 20260509133933 | 64 | 157 | 5.0 | 0.0 | 0.00 | 0.00 | 0.00 | 48 | 1064.1 |
| 20260509133813 | 64 | 157 | 6.0 | 0.0 | 0.00 | 0.00 | 0.00 | 48 | 1064.1 |
| 20260509133700 | 64 | 135 | 6.0 | 0.0 | 0.00 | 0.00 | 0.00 | 48 | 1064.1 |
| 20260509133538 | 64 | 157 | 4.0 | 0.0 | 0.00 | 0.00 | 0.00 | 48 | 1064.1 |
| 20260509133417 | 64 | 112 | 2.0 | 0.0 | 0.00 | 0.00 | 0.00 | 48 | 1064.1 |
| 20260509133305 | 64 | 135 | 5.0 | 0.0 | 0.00 | 0.00 | 0.00 | 47 | 1064.1 |
| 20260509133158 | 64 | 135 | 8.0 | 0.0 | 0.00 | 0.00 | 0.00 | 47 | 1064.2 |
| 20260509133046 | 64 | 135 | 7.0 | 0.0 | 0.00 | 0.00 | 0.00 | 47 | 1064.3 |
| 20260509132925 | 64 | 157 | 13.0 | 0.0 | 0.00 | 0.00 | 0.00 | 47 | 1064.2 |
| 20260509132812 | 65 | 135 | 8.0 | 0.0 | 0.00 | 0.00 | 0.00 | 47 | 1064.2 |
| 20260509132658 | 65 | 135 | 6.0 | 0.0 | 0.00 | 0.00 | 0.00 | 47 | 1064.3 |
| 20260509132538 | 65 | 67 | 7.0 | 0.0 | 0.00 | 0.00 | 0.00 | 46 | 1064.3 |
| 20260509132424 | 65 | 180 | 10.0 | 0.0 | 0.00 | 0.00 | 0.00 | 45 | 1064.3 |
| 20260509132306 | 66 | 157 | 5.0 | 0.0 | 0.00 | 0.00 | 0.00 | 46 | 1064.3 |
| 20260509132153 | 66 | 135 | 4.0 | 0.0 | 0.00 | 0.00 | 0.00 | 46 | 1064.3 |
| 20260509132045 | 66 | 157 | 6.0 | 0.0 | 0.00 | 0.00 | 0.00 | 45 | 1064.3 |
| 20260509131932 | 66 | 135 | 6.0 | 0.0 | 0.00 | 0.00 | 0.00 | 46 | 1064.3 |
| 20260509131818 | 66 | 135 | 8.0 | 0.0 | 0.00 | 0.00 | 0.00 | 46 | 1064.3 |
| 20260509131550 | 65 | 112 | 6.0 | 0.0 | 0.00 | 0.00 | 0.00 | 46 | 1064.3 |
| 20260509131205 | 64 | 90 | 6.0 | 0.0 | 0.00 | 0.00 | 0.00 | 46 | 1064.4 |
| 20260509131052 | 65 | 135 | 6.0 | 0.0 | 0.00 | 0.00 | 0.00 | 45 | 1064.3 |
| 20260509130947 | 65 | 157 | 5.0 | 0.0 | 0.00 | 0.00 | 0.00 | 45 | 1064.4 |
| 20260509130833 | 65 | 135 | 10.0 | 0.0 | 0.00 | 0.00 | 0.00 | 45 | 1064.4 |
| 20260509130721 | 65 | 180 | 9.0 | 0.0 | 0.00 | 0.00 | 0.00 | 46 | 1064.5 |
| 20260509130607 | 65 | 202 | 6.0 | 0.0 | 0.00 | 0.00 | 0.00 | 46 | 1064.5 |
| 20260509130455 | 65 | 135 | 3.0 | 0.0 | 0.00 | 0.00 | 0.00 | 46 | 1064.5 |
| 20260509130333 | 65 | 157 | 0.0 | 0.0 | 0.00 | 0.00 | 0.00 | 46 | 1064.5 |
| 20260509130222 | 65 | 157 | 4.0 | 0.0 | 0.00 | 0.00 | 0.00 | 45 | 1064.5 |
| 20260509130115 | 65 | 135 | 9.0 | 0.0 | 0.00 | 0.00 | 0.00 | 45 | 1064.5 |
| 20260509130012 | 65 | 135 | 6.0 | 0.0 | 0.00 | 0.00 | 0.00 | 45 | 1064.5 |
| 20260509125905 | 65 | 135 | 0.0 | 0.0 | 0.00 | 0.00 | 0.00 | 45 | 1064.5 |
| 20260509125752 | 65 | 112 | 5.0 | 0.0 | 0.00 | 0.00 | 0.00 | 46 | 1064.5 |
| 20260509125648 | 65 | 90 | 2.0 | 0.0 | 0.00 | 0.00 | 0.00 | 46 | 1064.6 |
| 20260509125542 | 65 | 112 | 5.0 | 0.0 | 0.00 | 0.00 | 0.00 | 46 | 1064.5 |
| 20260509125437 | 65 | 112 | 1.0 | 0.0 | 0.00 | 0.00 | 0.00 | 47 | 1064.6 |
| 20260509125333 | 65 | 112 | 0.0 | 0.0 | 0.00 | 0.00 | 0.00 | 48 | 1064.5 |
| 20260509125226 | 65 | 0 | 0.0 | 0.0 | 0.00 | 0.00 | 0.00 | 47 | 1064.7 |
| 20260509125114 | 65 | 45 | 0.0 | 0.0 | 0.00 | 0.00 | 0.00 | 45 | 1064.7 |
| 20260509125001 | 65 | 112 | 11.0 | 0.0 | 0.00 | 0.00 | 0.00 | 46 | 1064.6 |
| 20260509124847 | 65 | 45 | 3.0 | 0.0 | 0.00 | 0.00 | 0.00 | 46 | 1064.6 |
| 20260509124734 | 65 | 112 | 6.0 | 0.0 | 0.00 | 0.00 | 0.00 | 46 | 1064.7 |
| 20260509124630 | 65 | 157 | 3.0 | 0.0 | 0.00 | 0.00 | 0.00 | 46 | 1064.5 |
| 20260509124516 | 65 | 135 | 6.0 | 0.0 | 0.00 | 0.00 | 0.00 | 46 | 1064.6 |
| 20260509124354 | 64 | 112 | 2.0 | 0.0 | 0.00 | 0.00 | 0.00 | 46 | 1064.5 |
| 20260509124241 | 64 | 112 | 6.0 | 0.0 | 0.00 | 0.00 | 0.00 | 46 | 1064.6 |
| 20260509124112 | 64 | 135 | 4.0 | 0.0 | 0.00 | 0.00 | 0.00 | 45 | 1064.6 |
| 20260509124001 | 64 | 90 | 4.0 | 0.0 | 0.00 | 0.00 | 0.00 | 45 | 1064.7 |
| 20260509123855 | 64 | 135 | 7.0 | 0.0 | 0.00 | 0.00 | 0.00 | 45 | 1064.6 |
| 20260509123750 | 64 | 135 | 6.0 | 0.0 | 0.00 | 0.00 | 0.00 | 46 | 1064.6 |
| 20260509123645 | 64 | 112 | 7.0 | 0.0 | 0.00 | 0.00 | 0.00 | 46 | 1064.6 |
| 20260509123523 | 64 | 135 | 6.0 | 0.0 | 0.00 | 0.00 | 0.00 | 46 | 1064.6 |
| 20260509123402 | 64 | 67 | 8.0 | 0.0 | 0.00 | 0.00 | 0.00 | 46 | 1064.7 |
| 20260509123241 | 64 | 135 | 8.0 | 0.0 | 0.00 | 0.00 | 0.00 | 46 | 1064.6 |
| 20260509123129 | 64 | 135 | 6.0 | 0.0 | 0.00 | 0.00 | 0.00 | 46 | 1064.7 |
| 20260509123023 | 64 | 112 | 7.0 | 0.0 | 0.00 | 0.00 | 0.00 | 47 | 1064.7 |
| 20260509122909 | 64 | 135 | 4.0 | 0.0 | 0.00 | 0.00 | 0.00 | 46 | 1064.7 |
| 20260509122756 | 64 | 157 | 2.0 | 0.0 | 0.00 | 0.00 | 0.00 | 47 | 1064.7 |
| 20260509122636 | 64 | 135 | 10.0 | 0.0 | 0.00 | 0.00 | 0.00 | 47 | 1064.7 |
| 20260509122531 | 64 | 135 | 7.0 | 0.0 | 0.00 | 0.00 | 0.00 | 47 | 1064.8 |
| 20260509122418 | 64 | 157 | 9.0 | 0.0 | 0.00 | 0.00 | 0.00 | 47 | 1064.8 |
| 20260509122313 | 64 | 157 | 5.0 | 0.0 | 0.00 | 0.00 | 0.00 | 46 | 1064.7 |
| 20260509122208 | 64 | 135 | 9.0 | 0.0 | 0.00 | 0.00 | 0.00 | 47 | 1064.9 |
| 20260509122103 | 64 | 157 | 5.0 | 0.0 | 0.00 | 0.00 | 0.00 | 46 | 1064.8 |
| 20260509121958 | 64 | 157 | 6.0 | 0.0 | 0.00 | 0.00 | 0.00 | 46 | 1064.9 |
| 20260509121853 | 64 | 135 | 6.0 | 0.0 | 0.00 | 0.00 | 0.00 | 46 | 1064.8 |
| 20260509121741 | 64 | 157 | 6.0 | 0.0 | 0.00 | 0.00 | 0.00 | 46 | 1064.8 |
| 20260509121619 | 64 | 157 | 10.0 | 0.0 | 0.00 | 0.00 | 0.00 | 46 | 1064.8 |
| 20260509121513 | 64 | 135 | 12.0 | 0.0 | 0.00 | 0.00 | 0.00 | 46 | 1064.9 |
| 20260509121400 | 64 | 112 | 7.0 | 0.0 | 0.00 | 0.00 | 0.00 | 46 | 1064.9 |
| 20260509121246 | 64 | 112 | 8.0 | 0.0 | 0.00 | 0.00 | 0.00 | 46 | 1064.8 |
| 20260509121133 | 64 | 180 | 6.0 | 0.0 | 0.00 | 0.00 | 0.00 | 45 | 1064.8 |
| 20260509121015 | 64 | 67 | 5.0 | 0.0 | 0.00 | 0.00 | 0.00 | 45 | 1064.8 |
| 20260509120908 | 64 | 22 | 4.0 | 0.0 | 0.00 | 0.00 | 0.00 | 44 | 1064.8 |
| 20260509120804 | 64 | 67 | 3.0 | 0.0 | 0.00 | 0.00 | 0.00 | 44 | 1065.0 |
| 20260509120644 | 64 | 45 | 2.0 | 0.0 | 0.00 | 0.00 | 0.00 | 44 | 1064.9 |
| 20260509120531 | 64 | 112 | 7.0 | 0.0 | 0.00 | 0.00 | 0.00 | 45 | 1064.9 |
| 20260509120420 | 64 | 22 | 5.0 | 0.0 | 0.00 | 0.00 | 0.00 | 45 | 1065.0 |
| 20260509120314 | 64 | 112 | 4.0 | 0.0 | 0.00 | 0.00 | 0.00 | 44 | 1065.0 |
| 20260509120200 | 64 | 22 | 5.0 | 0.0 | 0.00 | 0.00 | 0.00 | 44 | 1065.0 |
| 20260509120025 | 64 | 45 | 6.0 | 0.0 | 0.00 | 0.00 | 0.00 | 43 | 1065.0 |
| 20260509115919 | 65 | 90 | 11.0 | 0.0 | 0.00 | 0.00 | 0.00 | 43 | 1065.0 |
| 20260509115759 | 65 | 45 | 6.0 | 0.0 | 0.00 | 0.00 | 0.00 | 44 | 1065.0 |
| 20260509115645 | 65 | 90 | 4.0 | 0.0 | 0.00 | 0.00 | 0.00 | 44 | 1065.0 |
| 20260509115526 | 65 | 67 | 4.0 | 0.0 | 0.00 | 0.00 | 0.00 | 43 | 1065.0 |
| 20260509115410 | 65 | 67 | 6.0 | 0.0 | 0.00 | 0.00 | 0.00 | 43 | 1065.0 |
| 20260509115258 | 65 | 67 | 5.0 | 0.0 | 0.00 | 0.00 | 0.00 | 42 | 1065.0 |
| 20260509115144 | 65 | 112 | 5.0 | 0.0 | 0.00 | 0.00 | 0.00 | 42 | 1065.1 |
| 20260509115023 | 65 | 90 | 5.0 | 0.0 | 0.00 | 0.00 | 0.00 | 42 | 1064.9 |
| 20260509114910 | 65 | 135 | 4.0 | 0.0 | 0.00 | 0.00 | 0.00 | 42 | 1065.0 |
| 20260509114749 | 66 | 135 | 9.0 | 0.0 | 0.00 | 0.00 | 0.00 | 41 | 1065.0 |
| 20260509114627 | 66 | 112 | 10.0 | 0.0 | 0.00 | 0.00 | 0.00 | 41 | 1065.0 |
| 20260509114458 | 66 | 135 | 9.0 | 0.0 | 0.00 | 0.00 | 0.00 | 40 | 1065.0 |
| 20260509114345 | 67 | 90 | 9.0 | 0.0 | 0.00 | 0.00 | 0.00 | 40 | 1065.0 |
| 20260509114232 | 67 | 112 | 8.0 | 0.0 | 0.00 | 0.00 | 0.00 | 39 | 1065.0 |
| 20260509114120 | 68 | 157 | 4.0 | 0.0 | 0.00 | 0.00 | 0.00 | 39 | 1065.0 |
| 20260509114016 | 68 | 135 | 7.0 | 0.0 | 0.00 | 0.00 | 0.00 | 39 | 1065.0 |
| 20260509113910 | 68 | 90 | 6.0 | 0.0 | 0.00 | 0.00 | 0.00 | 39 | 1065.0 |
| 20260509113804 | 68 | 135 | 9.0 | 0.0 | 0.00 | 0.00 | 0.00 | 39 | 1065.1 |
| 20260509113651 | 69 | 135 | 9.0 | 0.0 | 0.00 | 0.00 | 0.00 | 38 | 1065.0 |
| 20260509113531 | 69 | 135 | 6.0 | 0.0 | 0.00 | 0.00 | 0.00 | 39 | 1065.0 |
| 20260509113408 | 69 | 112 | 9.0 | 0.0 | 0.00 | 0.00 | 0.00 | 40 | 1065.0 |
| 20260509113247 | 69 | 112 | 7.0 | 0.0 | 0.00 | 0.00 | 0.00 | 40 | 1065.0 |
| 20260509113128 | 68 | 112 | 6.0 | 0.0 | 0.00 | 0.00 | 0.00 | 40 | 1065.0 |
| 20260509113023 | 68 | 135 | 11.0 | 0.0 | 0.00 | 0.00 | 0.00 | 40 | 1065.1 |
| 20260509112918 | 68 | 135 | 4.0 | 0.0 | 0.00 | 0.00 | 0.00 | 41 | 1065.0 |
| 20260509112803 | 68 | 157 | 8.0 | 0.0 | 0.00 | 0.00 | 0.00 | 41 | 1065.0 |
| 20260509112649 | 68 | 135 | 6.0 | 0.0 | 0.00 | 0.00 | 0.00 | 41 | 1065.0 |
| 20260509112537 | 67 | 135 | 11.0 | 0.0 | 0.00 | 0.00 | 0.00 | 41 | 1065.0 |
| 20260509112423 | 67 | 112 | 8.0 | 0.0 | 0.00 | 0.00 | 0.00 | 43 | 1065.0 |
| 20260509112306 | 66 | 112 | 10.0 | 0.0 | 0.00 | 0.00 | 0.00 | 43 | 1065.0 |
| 20260509112143 | 66 | 135 | 6.0 | 0.0 | 0.00 | 0.00 | 0.00 | 42 | 1065.0 |
| 20260509112036 | 66 | 180 | 11.0 | 0.0 | 0.00 | 0.00 | 0.00 | 41 | 1065.1 |
| 20260509111923 | 66 | 135 | 9.0 | 0.0 | 0.00 | 0.00 | 0.00 | 43 | 1065.1 |
| 20260509111810 | 66 | 112 | 6.0 | 0.0 | 0.00 | 0.00 | 0.00 | 43 | 1065.0 |
| 20260509111649 | 66 | 112 | 4.0 | 0.0 | 0.00 | 0.00 | 0.00 | 43 | 1065.0 |
| 20260509111536 | 66 | 135 | 6.0 | 0.0 | 0.00 | 0.00 | 0.00 | 44 | 1065.0 |
| 20260509111430 | 66 | 45 | 7.0 | 0.0 | 0.00 | 0.00 | 0.00 | 44 | 1065.1 |
| 20260509111302 | 66 | 112 | 2.0 | 0.0 | 0.00 | 0.00 | 0.00 | 44 | 1065.1 |
| 20260509111159 | 66 | 112 | 0.0 | 0.0 | 0.00 | 0.00 | 0.00 | 43 | 1065.1 |
| 20260509111052 | 66 | 112 | 4.0 | 0.0 | 0.00 | 0.00 | 0.00 | 42 | 1065.2 |
| 20260509110940 | 66 | 90 | 14.0 | 0.0 | 0.00 | 0.00 | 0.00 | 43 | 1065.2 |
| 20260509110819 | 66 | 90 | 6.0 | 0.0 | 0.00 | 0.00 | 0.00 | 43 | 1065.2 |
| 20260509110652 | 66 | 22 | 2.0 | 0.0 | 0.00 | 0.00 | 0.00 | 43 | 1065.2 |
| 20260509110544 | 66 | 112 | 8.0 | 0.0 | 0.00 | 0.00 | 0.00 | 43 | 1065.2 |
| 20260509110432 | 67 | 0 | 5.0 | 0.0 | 0.00 | 0.00 | 0.00 | 42 | 1065.2 |
| 20260509110329 | 67 | 22 | 7.0 | 0.0 | 0.00 | 0.00 | 0.00 | 42 | 1065.2 |
| 20260509110223 | 67 | 90 | 6.0 | 0.0 | 0.00 | 0.00 | 0.00 | 42 | 1065.3 |
| 20260509110119 | 67 | 90 | 9.0 | 0.0 | 0.00 | 0.00 | 0.00 | 42 | 1065.3 |
| 20260509110011 | 67 | 90 | 8.0 | 0.0 | 0.00 | 0.00 | 0.00 | 41 | 1065.3 |
| 20260509105850 | 68 | 67 | 6.0 | 0.0 | 0.00 | 0.00 | 0.00 | 41 | 1065.3 |
| 20260509105745 | 67 | 112 | 6.0 | 0.0 | 0.00 | 0.00 | 0.00 | 42 | 1065.3 |
| 20260509105631 | 67 | 90 | 2.0 | 0.0 | 0.00 | 0.00 | 0.00 | 43 | 1065.3 |
| 20260509105511 | 66 | 135 | 6.0 | 0.0 | 0.00 | 0.00 | 0.00 | 43 | 1065.3 |
| 20260509105344 | 66 | 112 | 4.0 | 0.0 | 0.00 | 0.00 | 0.00 | 43 | 1065.3 |
| 20260509105228 | 66 | 67 | 4.0 | 0.0 | 0.00 | 0.00 | 0.00 | 44 | 1065.3 |
| 20260509105116 | 65 | 45 | 5.0 | 0.0 | 0.00 | 0.00 | 0.00 | 44 | 1065.3 |
| 20260509104954 | 65 | 112 | 6.0 | 0.0 | 0.00 | 0.00 | 0.00 | 43 | 1065.3 |
| 20260509104841 | 65 | 90 | 8.0 | 0.0 | 0.00 | 0.00 | 0.00 | 43 | 1065.3 |
| 20260509104728 | 65 | 67 | 9.0 | 0.0 | 0.00 | 0.00 | 0.00 | 43 | 1065.3 |
| 20260509104615 | 65 | 112 | 5.0 | 0.0 | 0.00 | 0.00 | 0.00 | 44 | 1065.3 |
| 20260509104454 | 65 | 112 | 4.0 | 0.0 | 0.00 | 0.00 | 0.00 | 42 | 1065.3 |
| 20260509104343 | 65 | 135 | 3.0 | 0.0 | 0.00 | 0.00 | 0.00 | 42 | 1065.3 |
| 20260509104235 | 65 | 112 | 6.0 | 0.0 | 0.00 | 0.00 | 0.00 | 42 | 1065.4 |
| 20260509104114 | 65 | 112 | 0.0 | 0.0 | 0.00 | 0.00 | 0.00 | 42 | 1065.4 |
| 20260509103953 | 65 | 67 | 4.0 | 0.0 | 0.00 | 0.00 | 0.00 | 43 | 1065.4 |
| 20260509103823 | 65 | 135 | 4.0 | 0.0 | 0.00 | 0.00 | 0.00 | 44 | 1065.4 |
| 20260509103711 | 65 | 112 | 5.0 | 0.0 | 0.00 | 0.00 | 0.00 | 43 | 1065.5 |
| 20260509103557 | 65 | 67 | 5.0 | 0.0 | 0.00 | 0.00 | 0.00 | 42 | 1065.4 |
| 20260509103437 | 65 | 135 | 4.0 | 0.0 | 0.00 | 0.00 | 0.00 | 42 | 1065.4 |
| 20260509103323 | 65 | 157 | 7.0 | 0.0 | 0.00 | 0.00 | 0.00 | 44 | 1065.3 |
| 20260509103202 | 65 | 135 | 3.0 | 0.0 | 0.00 | 0.00 | 0.00 | 44 | 1065.4 |
| 20260509103048 | 65 | 112 | 6.0 | 0.0 | 0.00 | 0.00 | 0.00 | 44 | 1065.4 |
| 20260509102936 | 65 | 135 | 7.0 | 0.0 | 0.00 | 0.00 | 0.00 | 43 | 1065.4 |
| 20260509102814 | 65 | 135 | 2.0 | 0.0 | 0.00 | 0.00 | 0.00 | 42 | 1065.4 |
| 20260509102653 | 65 | 135 | 6.0 | 0.0 | 0.00 | 0.00 | 0.00 | 43 | 1065.4 |
| 20260509102524 | 66 | 90 | 7.0 | 0.0 | 0.00 | 0.00 | 0.00 | 41 | 1065.4 |
| 20260509102402 | 66 | 90 | 10.0 | 0.0 | 0.00 | 0.00 | 0.00 | 42 | 1065.5 |
| 20260509102235 | 67 | 135 | 6.0 | 0.0 | 0.00 | 0.00 | 0.00 | 42 | 1065.4 |
| 20260509102128 | 67 | 135 | 7.0 | 0.0 | 0.00 | 0.00 | 0.00 | 42 | 1065.5 |
| 20260509102022 | 67 | 112 | 4.0 | 0.0 | 0.00 | 0.00 | 0.00 | 40 | 1065.5 |
| 20260509101902 | 67 | 112 | 5.0 | 0.0 | 0.00 | 0.00 | 0.00 | 40 | 1065.4 |
| 20260509101749 | 68 | 90 | 7.0 | 0.0 | 0.00 | 0.00 | 0.00 | 41 | 1065.5 |